NOAA Web Site Link Tides and Currents Home Page Transparent placeholder image

PORTS® Data Listing: 8638614 Willoughby Degaussing Station, VA

CO-OPS RAW PORTS DATA

************************      PRELIMINARY DATA      ************************** 

     THIS RAW DATA HAS NOT BEEN SUBJECT TO THE NATIONAL OCEAN SERVICE'S        
     QUALITY CONTROL OR QUALITY ASSURANCE PROCEDURES AND DOES NOT MEET         
     THE CRITERIA AND STANDARDS OF OFFICIAL NATIONAL OCEAN SERVICE             
     DATA.  IT IS RELEASED FOR LIMITED PUBLIC USE AS PRELIMINARY DATA TO       
     BE USED ONLY WITH APPROPRIATE CAUTION.                                    

************************      PRELIMINARY DATA      ************************** 


       CD   -   Calendar date
       T    -   Time
       TZ   -   Timezone
       PW   -   Predicted water level (feet above MLLW)
       OW   -   Observed water level (feet above MLLW)
       WS   -   Wind speed (knots)
       WD   -   Wind direction (degrees true)
       WG   -   Wind gust (knots)
       AT   -   Air temperature (degrees farenheit)
       WT   -   Water temperature (degrees farenheit)
       AP   -   Air pressure (millibars)
       SA   -   Salinty (PSU - Practical Salinity Units)
       SG   -   Specific gravity
       RH   -   Relative humidity
       AG   -   Air gap (feet)
       VI   -   Visibility (nautical miles)

       ** NOTE **
       A variable that has its data fields filled with "9"s, indicates that
       data was not collected for that sample period.
       **********


STATION NAME: Willoughby Degaussing Station (8638614)
****************************************************************************************************
    CD       T    TZ    PW     OW    WS   WD   WG    AT    WT    AP    SA    SG     RH    AG   VI
****************************************************************************************************
2019/05/18 22:30 EDT  -99.99 -99.99   10  163   11  70.3 -99.9 1016.7 -9.9 -9.999 -99.9 -99.99 -9.99
2019/05/18 22:36 EDT  -99.99 -99.99    9  162   11  70.3 -99.9 1016.8 -9.9 -9.999 -99.9 -99.99 -9.99
2019/05/18 22:42 EDT  -99.99 -99.99    8  164   10  70.2 -99.9 1016.8 -9.9 -9.999 -99.9 -99.99 -9.99
2019/05/18 22:48 EDT  -99.99 -99.99    7  159    8  70.2 -99.9 1016.8 -9.9 -9.999 -99.9 -99.99 -9.99
2019/05/18 22:54 EDT  -99.99 -99.99    6  152    9  70.2 -99.9 1016.8 -9.9 -9.999 -99.9 -99.99 -9.99
2019/05/18 23:00 EDT  -99.99 -99.99    7  160   10  70.2 -99.9 1016.8 -9.9 -9.999 -99.9 -99.99 -9.99
2019/05/18 23:06 EDT  -99.99 -99.99    8  161   10  70.2 -99.9 1016.8 -9.9 -9.999 -99.9 -99.99 -9.99
2019/05/18 23:12 EDT  -99.99 -99.99    7  157   10  70.3 -99.9 1016.8 -9.9 -9.999 -99.9 -99.99 -9.99
2019/05/18 23:18 EDT  -99.99 -99.99    7  153    9  70.2 -99.9 1016.8 -9.9 -9.999 -99.9 -99.99 -9.99
2019/05/18 23:24 EDT  -99.99 -99.99    7  147   10  70.2 -99.9 1016.8 -9.9 -9.999 -99.9 -99.99 -9.99
2019/05/18 23:30 EDT  -99.99 -99.99    7  160    9  70.2 -99.9 1016.8 -9.9 -9.999 -99.9 -99.99 -9.99
2019/05/18 23:36 EDT  -99.99 -99.99    7  154    8  70.2 -99.9 1016.8 -9.9 -9.999 -99.9 -99.99 -9.99
2019/05/18 23:42 EDT  -99.99 -99.99    8  148    9  70.2 -99.9 1016.8 -9.9 -9.999 -99.9 -99.99 -9.99
2019/05/18 23:48 EDT  -99.99 -99.99    7  147   10  70.2 -99.9 1016.8 -9.9 -9.999 -99.9 -99.99 -9.99
2019/05/18 23:54 EDT  -99.99 -99.99    8  145   10  70.2 -99.9 1016.8 -9.9 -9.999 -99.9 -99.99 -9.99
2019/05/19 00:00 EDT  -99.99 -99.99    6  137   10  70.0 -99.9 1016.8 -9.9 -9.999 -99.9 -99.99 -9.99
2019/05/19 00:06 EDT  -99.99 -99.99    6  139    8  70.0 -99.9 1016.9 -9.9 -9.999 -99.9 -99.99 -9.99
2019/05/19 00:12 EDT  -99.99 -99.99    6  136    7  70.0 -99.9 1016.9 -9.9 -9.999 -99.9 -99.99 -9.99
2019/05/19 00:18 EDT  -99.99 -99.99    6  144    7  70.0 -99.9 1017.0 -9.9 -9.999 -99.9 -99.99 -9.99
2019/05/19 00:24 EDT  -99.99 -99.99    6  143    9  70.2 -99.9 1017.1 -9.9 -9.999 -99.9 -99.99 -9.99
2019/05/19 00:30 EDT  -99.99 -99.99    5  152    8  70.2 -99.9 1017.1 -9.9 -9.999 -99.9 -99.99 -9.99
2019/05/19 00:36 EDT  -99.99 -99.99    7  159    8  70.0 -99.9 1017.1 -9.9 -9.999 -99.9 -99.99 -9.99
2019/05/19 00:42 EDT  -99.99 -99.99    7  158    9  70.0 -99.9 1017.0 -9.9 -9.999 -99.9 -99.99 -9.99
2019/05/19 00:48 EDT  -99.99 -99.99    7  146    8  70.0 -99.9 1017.0 -9.9 -9.999 -99.9 -99.99 -9.99
2019/05/19 00:54 EDT  -99.99 -99.99    7  146    9  69.8 -99.9 1016.9 -9.9 -9.999 -99.9 -99.99 -9.99
2019/05/19 01:00 EDT  -99.99 -99.99    8  154    9  69.8 -99.9 1016.8 -9.9 -9.999 -99.9 -99.99 -9.99
2019/05/19 01:06 EDT  -99.99 -99.99    9  158   10  69.8 -99.9 1016.7 -9.9 -9.999 -99.9 -99.99 -9.99
2019/05/19 01:12 EDT  -99.99 -99.99    9  157   11  69.8 -99.9 1016.7 -9.9 -9.999 -99.9 -99.99 -9.99
2019/05/19 01:18 EDT  -99.99 -99.99   10  154   11  69.8 -99.9 1016.5 -9.9 -9.999 -99.9 -99.99 -9.99
2019/05/19 01:24 EDT  -99.99 -99.99   10  161   11  69.8 -99.9 1016.5 -9.9 -9.999 -99.9 -99.99 -9.99
2019/05/19 01:30 EDT  -99.99 -99.99   10  167   12  69.8 -99.9 1016.5 -9.9 -9.999 -99.9 -99.99 -9.99
2019/05/19 01:36 EDT  -99.99 -99.99   10  170   11  69.8 -99.9 1016.5 -9.9 -9.999 -99.9 -99.99 -9.99
2019/05/19 01:42 EDT  -99.99 -99.99    9  169   11  69.6 -99.9 1016.4 -9.9 -9.999 -99.9 -99.99 -9.99
2019/05/19 01:48 EDT  -99.99 -99.99   10  165   11  69.8 -99.9 1016.4 -9.9 -9.999 -99.9 -99.99 -9.99
2019/05/19 01:54 EDT  -99.99 -99.99   10  165   12  69.8 -99.9 1016.3 -9.9 -9.999 -99.9 -99.99 -9.99
2019/05/19 02:00 EDT  -99.99 -99.99   11  166   12  69.8 -99.9 1016.3 -9.9 -9.999 -99.9 -99.99 -9.99
2019/05/19 02:06 EDT  -99.99 -99.99   10  166   11  69.8 -99.9 1016.3 -9.9 -9.999 -99.9 -99.99 -9.99
2019/05/19 02:12 EDT  -99.99 -99.99   10  164   11  69.8 -99.9 1016.3 -9.9 -9.999 -99.9 -99.99 -9.99
2019/05/19 02:18 EDT  -99.99 -99.99   10  166   11  70.0 -99.9 1016.3 -9.9 -9.999 -99.9 -99.99 -9.99
2019/05/19 02:24 EDT  -99.99 -99.99   10  167   11  70.0 -99.9 1016.3 -9.9 -9.999 -99.9 -99.99 -9.99
2019/05/19 02:30 EDT  -99.99 -99.99   10  170   11  70.0 -99.9 1016.2 -9.9 -9.999 -99.9 -99.99 -9.99
2019/05/19 02:36 EDT  -99.99 -99.99    9  172   10  70.0 -99.9 1016.3 -9.9 -9.999 -99.9 -99.99 -9.99
2019/05/19 02:42 EDT  -99.99 -99.99    9  178   10  70.2 -99.9 1016.2 -9.9 -9.999 -99.9 -99.99 -9.99
2019/05/19 02:48 EDT  -99.99 -99.99    9  166   11  70.5 -99.9 1016.1 -9.9 -9.999 -99.9 -99.99 -9.99
2019/05/19 02:54 EDT  -99.99 -99.99    9  170   11  70.5 -99.9 1016.1 -9.9 -9.999 -99.9 -99.99 -9.99
2019/05/19 03:00 EDT  -99.99 -99.99    9  167   10  70.9 -99.9 1016.1 -9.9 -9.999 -99.9 -99.99 -9.99
2019/05/19 03:06 EDT  -99.99 -99.99    8  159   10  70.7 -99.9 1016.1 -9.9 -9.999 -99.9 -99.99 -9.99
2019/05/19 03:12 EDT  -99.99 -99.99    9  162   11  71.2 -99.9 1016.1 -9.9 -9.999 -99.9 -99.99 -9.99
2019/05/19 03:18 EDT  -99.99 -99.99    9  156   11  71.2 -99.9 1016.0 -9.9 -9.999 -99.9 -99.99 -9.99
2019/05/19 03:24 EDT  -99.99 -99.99    9  151   10  71.2 -99.9 1016.0 -9.9 -9.999 -99.9 -99.99 -9.99
2019/05/19 03:30 EDT  -99.99 -99.99   10  150   11  71.4 -99.9 1016.0 -9.9 -9.999 -99.9 -99.99 -9.99
2019/05/19 03:36 EDT  -99.99 -99.99   10  150   11  71.4 -99.9 1016.0 -9.9 -9.999 -99.9 -99.99 -9.99
2019/05/19 03:42 EDT  -99.99 -99.99    9  150   11  71.2 -99.9 1016.0 -9.9 -9.999 -99.9 -99.99 -9.99
2019/05/19 03:48 EDT  -99.99 -99.99    8  143   10  70.9 -99.9 1016.1 -9.9 -9.999 -99.9 -99.99 -9.99
2019/05/19 03:54 EDT  -99.99 -99.99   10  146   10  71.2 -99.9 1016.1 -9.9 -9.999 -99.9 -99.99 -9.99
2019/05/19 04:00 EDT  -99.99 -99.99    9  141   10  70.9 -99.9 1016.2 -9.9 -9.999 -99.9 -99.99 -9.99
2019/05/19 04:06 EDT  -99.99 -99.99    9  147   10  70.7 -99.9 1016.2 -9.9 -9.999 -99.9 -99.99 -9.99
2019/05/19 04:12 EDT  -99.99 -99.99    9  150    9  70.7 -99.9 1016.3 -9.9 -9.999 -99.9 -99.99 -9.99
2019/05/19 04:18 EDT  -99.99 -99.99    8  152   10  70.7 -99.9 1016.3 -9.9 -9.999 -99.9 -99.99 -9.99
2019/05/19 04:24 EDT  -99.99 -99.99    9  154   11  71.1 -99.9 1016.3 -9.9 -9.999 -99.9 -99.99 -9.99
2019/05/19 04:30 EDT  -99.99 -99.99   10  155   11  71.1 -99.9 1016.3 -9.9 -9.999 -99.9 -99.99 -9.99
2019/05/19 04:36 EDT  -99.99 -99.99    9  154   10  71.1 -99.9 1016.3 -9.9 -9.999 -99.9 -99.99 -9.99
2019/05/19 04:42 EDT  -99.99 -99.99    9  154   11  71.1 -99.9 1016.2 -9.9 -9.999 -99.9 -99.99 -9.99
2019/05/19 04:48 EDT  -99.99 -99.99   10  160   11  71.1 -99.9 1016.2 -9.9 -9.999 -99.9 -99.99 -9.99
2019/05/19 04:54 EDT  -99.99 -99.99   10  165   11  71.1 -99.9 1016.1 -9.9 -9.999 -99.9 -99.99 -9.99
2019/05/19 05:00 EDT  -99.99 -99.99   11  165   12  71.1 -99.9 1016.1 -9.9 -9.999 -99.9 -99.99 -9.99
2019/05/19 05:06 EDT  -99.99 -99.99   11  164   12  71.1 -99.9 1016.2 -9.9 -9.999 -99.9 -99.99 -9.99
2019/05/19 05:12 EDT  -99.99 -99.99   10  163   12  71.1 -99.9 1016.2 -9.9 -9.999 -99.9 -99.99 -9.99
2019/05/19 05:18 EDT  -99.99 -99.99   10  157   11  71.1 -99.9 1016.2 -9.9 -9.999 -99.9 -99.99 -9.99
2019/05/19 05:24 EDT  -99.99 -99.99   10  157   11  71.1 -99.9 1016.3 -9.9 -9.999 -99.9 -99.99 -9.99
2019/05/19 05:30 EDT  -99.99 -99.99   10  157   12  71.1 -99.9 1016.3 -9.9 -9.999 -99.9 -99.99 -9.99
2019/05/19 05:36 EDT  -99.99 -99.99   10  165   11  71.2 -99.9 1016.3 -9.9 -9.999 -99.9 -99.99 -9.99
2019/05/19 05:42 EDT  -99.99 -99.99   10  163   11  71.2 -99.9 1016.4 -9.9 -9.999 -99.9 -99.99 -9.99
2019/05/19 05:48 EDT  -99.99 -99.99   10  165   11  71.2 -99.9 1016.4 -9.9 -9.999 -99.9 -99.99 -9.99
2019/05/19 05:54 EDT  -99.99 -99.99    8  180   11  71.1 -99.9 1016.5 -9.9 -9.999 -99.9 -99.99 -9.99
2019/05/19 06:00 EDT  -99.99 -99.99    5  187    8  71.1 -99.9 1016.7 -9.9 -9.999 -99.9 -99.99 -9.99
2019/05/19 06:06 EDT  -99.99 -99.99    1  234    4  71.2 -99.9 1016.8 -9.9 -9.999 -99.9 -99.99 -9.99
2019/05/19 06:12 EDT  -99.99 -99.99    2  344    2  71.1 -99.9 1016.8 -9.9 -9.999 -99.9 -99.99 -9.99
2019/05/19 06:18 EDT  -99.99 -99.99    0   42    2  71.4 -99.9 1016.8 -9.9 -9.999 -99.9 -99.99 -9.99
2019/05/19 06:24 EDT  -99.99 -99.99    1  151    2  71.8 -99.9 1016.8 -9.9 -9.999 -99.9 -99.99 -9.99
2019/05/19 06:30 EDT  -99.99 -99.99    2  156    3  72.1 -99.9 1016.8 -9.9 -9.999 -99.9 -99.99 -9.99
2019/05/19 06:36 EDT  -99.99 -99.99    3  160    3  72.3 -99.9 1016.8 -9.9 -9.999 -99.9 -99.99 -9.99
2019/05/19 06:42 EDT  -99.99 -99.99    4  159    4  72.1 -99.9 1016.8 -9.9 -9.999 -99.9 -99.99 -9.99
2019/05/19 06:48 EDT  -99.99 -99.99    5  156    6  72.1 -99.9 1016.7 -9.9 -9.999 -99.9 -99.99 -9.99
2019/05/19 06:54 EDT  -99.99 -99.99    5  160    6  72.0 -99.9 1016.8 -9.9 -9.999 -99.9 -99.99 -9.99
2019/05/19 07:00 EDT  -99.99 -99.99    8  154    8  72.3 -99.9 1016.8 -9.9 -9.999 -99.9 -99.99 -9.99
2019/05/19 07:06 EDT  -99.99 -99.99    7  154    9  72.3 -99.9 1016.9 -9.9 -9.999 -99.9 -99.99 -9.99
2019/05/19 07:12 EDT  -99.99 -99.99    7  165    8  72.1 -99.9 1016.9 -9.9 -9.999 -99.9 -99.99 -9.99
2019/05/19 07:18 EDT  -99.99 -99.99    7  166    9  72.3 -99.9 1016.9 -9.9 -9.999 -99.9 -99.99 -9.99
2019/05/19 07:24 EDT  -99.99 -99.99    5  186    9  72.9 -99.9 1017.1 -9.9 -9.999 -99.9 -99.99 -9.99
2019/05/19 07:30 EDT  -99.99 -99.99    2  237    4  72.7 -99.9 1017.3 -9.9 -9.999 -99.9 -99.99 -9.99
2019/05/19 07:36 EDT  -99.99 -99.99    4  227    5  73.0 -99.9 1017.4 -9.9 -9.999 -99.9 -99.99 -9.99
2019/05/19 07:42 EDT  -99.99 -99.99    9  224    9  71.2 -99.9 1017.3 -9.9 -9.999 -99.9 -99.99 -9.99
2019/05/19 07:48 EDT  -99.99 -99.99   10  208   11  72.1 -99.9 1017.3 -9.9 -9.999 -99.9 -99.99 -9.99
2019/05/19 07:54 EDT  -99.99 -99.99   10  197   12  72.5 -99.9 1017.3 -9.9 -9.999 -99.9 -99.99 -9.99
2019/05/19 08:00 EDT  -99.99 -99.99    8  187   11  72.9 -99.9 1017.2 -9.9 -9.999 -99.9 -99.99 -9.99
2019/05/19 08:06 EDT  -99.99 -99.99    9  185   11  73.2 -99.9 1017.1 -9.9 -9.999 -99.9 -99.99 -9.99
2019/05/19 08:12 EDT  -99.99 -99.99    8  186   11  73.6 -99.9 1017.2 -9.9 -9.999 -99.9 -99.99 -9.99
2019/05/19 08:18 EDT  -99.99 -99.99   10  182   11  73.8 -99.9 1017.2 -9.9 -9.999 -99.9 -99.99 -9.99
2019/05/19 08:24 EDT  -99.99 -99.99   13  184   15  73.9 -99.9 1017.2 -9.9 -9.999 -99.9 -99.99 -9.99
2019/05/19 08:30 EDT  -99.99 -99.99   12  181   14  74.3 -99.9 1017.1 -9.9 -9.999 -99.9 -99.99 -9.99
2019/05/19 08:36 EDT  -99.99 -99.99   12  186   14  74.7 -99.9 1017.1 -9.9 -9.999 -99.9 -99.99 -9.99
2019/05/19 08:42 EDT  -99.99 -99.99   13  185   15  74.8 -99.9 1017.1 -9.9 -9.999 -99.9 -99.99 -9.99
2019/05/19 08:48 EDT  -99.99 -99.99   13  192   15  74.8 -99.9 1017.1 -9.9 -9.999 -99.9 -99.99 -9.99
2019/05/19 08:54 EDT  -99.99 -99.99   14  187   16  74.3 -99.9 1017.2 -9.9 -9.999 -99.9 -99.99 -9.99
2019/05/19 09:00 EDT  -99.99 -99.99   14  186   15  74.5 -99.9 1017.2 -9.9 -9.999 -99.9 -99.99 -9.99
2019/05/19 09:06 EDT  -99.99 -99.99   14  185   15  74.5 -99.9 1017.2 -9.9 -9.999 -99.9 -99.99 -9.99
2019/05/19 09:12 EDT  -99.99 -99.99   12  184   14  74.1 -99.9 1017.3 -9.9 -9.999 -99.9 -99.99 -9.99
2019/05/19 09:18 EDT  -99.99 -99.99   11  190   14  74.3 -99.9 1017.2 -9.9 -9.999 -99.9 -99.99 -9.99
2019/05/19 09:24 EDT  -99.99 -99.99   10  188   12  74.1 -99.9 1017.2 -9.9 -9.999 -99.9 -99.99 -9.99
2019/05/19 09:30 EDT  -99.99 -99.99   11  192   14  74.7 -99.9 1017.1 -9.9 -9.999 -99.9 -99.99 -9.99
2019/05/19 09:36 EDT  -99.99 -99.99   11  176   12  74.5 -99.9 1017.1 -9.9 -9.999 -99.9 -99.99 -9.99
2019/05/19 09:42 EDT  -99.99 -99.99   12  176   14  75.0 -99.9 1017.0 -9.9 -9.999 -99.9 -99.99 -9.99
2019/05/19 09:48 EDT  -99.99 -99.99   12  185   15  75.6 -99.9 1017.1 -9.9 -9.999 -99.9 -99.99 -9.99
2019/05/19 09:54 EDT  -99.99 -99.99   11  189   13  75.9 -99.9 1017.1 -9.9 -9.999 -99.9 -99.99 -9.99
2019/05/19 10:00 EDT  -99.99 -99.99   11  190   13  76.8 -99.9 1017.2 -9.9 -9.999 -99.9 -99.99 -9.99
2019/05/19 10:06 EDT  -99.99 -99.99    9  196   12  77.0 -99.9 1017.2 -9.9 -9.999 -99.9 -99.99 -9.99
2019/05/19 10:12 EDT  -99.99 -99.99    9  183   11  77.7 -99.9 1017.2 -9.9 -9.999 -99.9 -99.99 -9.99
2019/05/19 10:18 EDT  -99.99 -99.99    8  193    9  77.7 -99.9 1017.2 -9.9 -9.999 -99.9 -99.99 -9.99
2019/05/19 10:24 EDT  -99.99 -99.99    8  186    9  78.3 -99.9 1017.1 -9.9 -9.999 -99.9 -99.99 -9.99
2019/05/19 10:30 EDT  -99.99 -99.99    9  184   11  78.6 -99.9 1017.0 -9.9 -9.999 -99.9 -99.99 -9.99
2019/05/19 10:36 EDT  -99.99 -99.99    9  177   10  79.2 -99.9 1017.0 -9.9 -9.999 -99.9 -99.99 -9.99
2019/05/19 10:42 EDT  -99.99 -99.99   10  184   11  79.0 -99.9 1017.0 -9.9 -9.999 -99.9 -99.99 -9.99
2019/05/19 10:48 EDT  -99.99 -99.99   10  178   11  79.5 -99.9 1017.0 -9.9 -9.999 -99.9 -99.99 -9.99
2019/05/19 10:54 EDT  -99.99 -99.99    8  185   11  79.5 -99.9 1017.0 -9.9 -9.999 -99.9 -99.99 -9.99
2019/05/19 11:00 EDT  -99.99 -99.99    5  192    6  79.7 -99.9 1017.1 -9.9 -9.999 -99.9 -99.99 -9.99
2019/05/19 11:06 EDT  -99.99 -99.99    6  194    7  80.1 -99.9 1017.0 -9.9 -9.999 -99.9 -99.99 -9.99
2019/05/19 11:12 EDT  -99.99 -99.99    6  200    7  80.6 -99.9 1017.0 -9.9 -9.999 -99.9 -99.99 -9.99
2019/05/19 11:18 EDT  -99.99 -99.99    8  182    9  80.2 -99.9 1017.0 -9.9 -9.999 -99.9 -99.99 -9.99
2019/05/19 11:24 EDT  -99.99 -99.99    7  188    9  81.1 -99.9 1017.1 -9.9 -9.999 -99.9 -99.99 -9.99
2019/05/19 11:30 EDT  -99.99 -99.99    9  207   11  81.7 -99.9 1017.0 -9.9 -9.999 -99.9 -99.99 -9.99
2019/05/19 11:36 EDT  -99.99 -99.99   10  196   11  82.0 -99.9 1016.9 -9.9 -9.999 -99.9 -99.99 -9.99
2019/05/19 11:42 EDT  -99.99 -99.99    8  189   11  82.0 -99.9 1016.9 -9.9 -9.999 -99.9 -99.99 -9.99
2019/05/19 11:48 EDT  -99.99 -99.99   10  193   12  82.9 -99.9 1016.8 -9.9 -9.999 -99.9 -99.99 -9.99
2019/05/19 11:54 EDT  -99.99 -99.99    7  180   10  82.2 -99.9 1016.8 -9.9 -9.999 -99.9 -99.99 -9.99
2019/05/19 12:00 EDT  -99.99 -99.99   10  186   11  82.8 -99.9 1016.7 -9.9 -9.999 -99.9 -99.99 -9.99
2019/05/19 12:06 EDT  -99.99 -99.99   10  173   12  83.1 -99.9 1016.6 -9.9 -9.999 -99.9 -99.99 -9.99
2019/05/19 12:12 EDT  -99.99 -99.99   11  175   13  83.5 -99.9 1016.6 -9.9 -9.999 -99.9 -99.99 -9.99
2019/05/19 12:18 EDT  -99.99 -99.99   11  183   13  82.8 -99.9 1016.6 -9.9 -9.999 -99.9 -99.99 -9.99
2019/05/19 12:24 EDT  -99.99 -99.99    8  183   13  83.1 -99.9 1016.5 -9.9 -9.999 -99.9 -99.99 -9.99
2019/05/19 12:30 EDT  -99.99 -99.99   11  187   13  84.4 -99.9 1016.5 -9.9 -9.999 -99.9 -99.99 -9.99
2019/05/19 12:36 EDT  -99.99 -99.99   11  185   13  84.4 -99.9 1016.5 -9.9 -9.999 -99.9 -99.99 -9.99
2019/05/19 12:42 EDT  -99.99 -99.99   11  172   15  83.8 -99.9 1016.4 -9.9 -9.999 -99.9 -99.99 -9.99
2019/05/19 12:48 EDT  -99.99 -99.99    9  187   11  84.4 -99.9 1016.4 -9.9 -9.999 -99.9 -99.99 -9.99
2019/05/19 12:54 EDT  -99.99 -99.99   11  180   13  84.9 -99.9 1016.3 -9.9 -9.999 -99.9 -99.99 -9.99
2019/05/19 13:00 EDT  -99.99 -99.99    8  188   12  84.7 -99.9 1016.3 -9.9 -9.999 -99.9 -99.99 -9.99
2019/05/19 13:06 EDT  -99.99 -99.99    5  226   12  83.1 -99.9 1016.3 -9.9 -9.999 -99.9 -99.99 -9.99
2019/05/19 13:12 EDT  -99.99 -99.99    7  242    9  83.3 -99.9 1016.2 -9.9 -9.999 -99.9 -99.99 -9.99
2019/05/19 13:18 EDT  -99.99 -99.99    6  239    9  84.0 -99.9 1016.2 -9.9 -9.999 -99.9 -99.99 -9.99
2019/05/19 13:24 EDT  -99.99 -99.99    5  254    7  83.3 -99.9 1016.3 -9.9 -9.999 -99.9 -99.99 -9.99
2019/05/19 13:30 EDT  -99.99 -99.99    5  261    6  83.7 -99.9 1016.3 -9.9 -9.999 -99.9 -99.99 -9.99
2019/05/19 13:36 EDT  -99.99 -99.99    5  286    6  83.3 -99.9 1016.3 -9.9 -9.999 -99.9 -99.99 -9.99
2019/05/19 13:42 EDT  -99.99 -99.99    4  327    5  80.6 -99.9 1016.2 -9.9 -9.999 -99.9 -99.99 -9.99
2019/05/19 13:48 EDT  -99.99 -99.99    5    1    6  78.3 -99.9 1016.2 -9.9 -9.999 -99.9 -99.99 -9.99
2019/05/19 13:54 EDT  -99.99 -99.99    4  360    5  80.2 -99.9 1016.2 -9.9 -9.999 -99.9 -99.99 -9.99
2019/05/19 14:00 EDT  -99.99 -99.99    4  339    5  81.9 -99.9 1016.2 -9.9 -9.999 -99.9 -99.99 -9.99
2019/05/19 14:06 EDT  -99.99 -99.99    5   12    6  79.7 -99.9 1016.1 -9.9 -9.999 -99.9 -99.99 -9.99
2019/05/19 14:12 EDT  -99.99 -99.99    4  358    6  81.7 -99.9 1016.1 -9.9 -9.999 -99.9 -99.99 -9.99
2019/05/19 14:18 EDT  -99.99 -99.99    3   23    4  80.4 -99.9 1016.0 -9.9 -9.999 -99.9 -99.99 -9.99
2019/05/19 14:24 EDT  -99.99 -99.99    4   15    4  80.4 -99.9 1016.0 -9.9 -9.999 -99.9 -99.99 -9.99
2019/05/19 14:30 EDT  -99.99 -99.99    3  348    4  82.6 -99.9 1015.9 -9.9 -9.999 -99.9 -99.99 -9.99
2019/05/19 14:36 EDT  -99.99 -99.99    4   14    5  79.7 -99.9 1015.9 -9.9 -9.999 -99.9 -99.99 -9.99
2019/05/19 14:42 EDT  -99.99 -99.99    5   43    5  81.0 -99.9 1015.8 -9.9 -9.999 -99.9 -99.99 -9.99
2019/05/19 14:48 EDT  -99.99 -99.99    3   20    5  80.4 -99.9 1015.7 -9.9 -9.999 -99.9 -99.99 -9.99
2019/05/19 14:54 EDT  -99.99 -99.99    4    4    5  82.2 -99.9 1015.7 -9.9 -9.999 -99.9 -99.99 -9.99
2019/05/19 15:00 EDT  -99.99 -99.99    4  348    4  82.8 -99.9 1015.6 -9.9 -9.999 -99.9 -99.99 -9.99
2019/05/19 15:06 EDT  -99.99 -99.99    6   54    6  79.0 -99.9 1015.5 -9.9 -9.999 -99.9 -99.99 -9.99
2019/05/19 15:12 EDT  -99.99 -99.99    3   38    5  81.9 -99.9 1015.5 -9.9 -9.999 -99.9 -99.99 -9.99
2019/05/19 15:18 EDT  -99.99 -99.99    3  350    4  83.1 -99.9 1015.4 -9.9 -9.999 -99.9 -99.99 -9.99
2019/05/19 15:24 EDT  -99.99 -99.99    4   56    5  79.2 -99.9 1015.4 -9.9 -9.999 -99.9 -99.99 -9.99
2019/05/19 15:30 EDT  -99.99 -99.99    0  347    4  83.3 -99.9 1015.3 -9.9 -9.999 -99.9 -99.99 -9.99
2019/05/19 15:36 EDT  -99.99 -99.99    1  254    2  84.4 -99.9 1015.3 -9.9 -9.999 -99.9 -99.99 -9.99
2019/05/19 15:42 EDT  -99.99 -99.99    4   47    5  79.7 -99.9 1015.1 -9.9 -9.999 -99.9 -99.99 -9.99
2019/05/19 15:48 EDT  -99.99 -99.99    4   55    5  80.4 -99.9 1015.0 -9.9 -9.999 -99.9 -99.99 -9.99
2019/05/19 15:54 EDT  -99.99 -99.99    2   93    5  83.1 -99.9 1014.9 -9.9 -9.999 -99.9 -99.99 -9.99
2019/05/19 16:00 EDT  -99.99 -99.99    0   92    3  84.6 -99.9 1014.8 -9.9 -9.999 -99.9 -99.99 -9.99
2019/05/19 16:06 EDT  -99.99 -99.99    2  132    4  83.1 -99.9 1014.7 -9.9 -9.999 -99.9 -99.99 -9.99
2019/05/19 16:12 EDT  -99.99 -99.99    1   18    6  83.1 -99.9 1014.7 -9.9 -9.999 -99.9 -99.99 -9.99
2019/05/19 16:18 EDT  -99.99 -99.99    1    5    2  83.8 -99.9 1014.6 -9.9 -9.999 -99.9 -99.99 -9.99
2019/05/19 16:24 EDT  -99.99 -99.99    7  188   12  85.6 -99.9 1014.4 -9.9 -9.999 -99.9 -99.99 -9.99
2019/05/19 16:30 EDT  -99.99 -99.99   12  183   15  88.3 -99.9 1014.3 -9.9 -9.999 -99.9 -99.99 -9.99
2019/05/19 16:36 EDT  -99.99 -99.99   13  185   15  88.2 -99.9 1014.2 -9.9 -9.999 -99.9 -99.99 -9.99
2019/05/19 16:42 EDT  -99.99 -99.99   14  187   17  87.8 -99.9 1014.2 -9.9 -9.999 -99.9 -99.99 -9.99
2019/05/19 16:48 EDT  -99.99 -99.99   13  193   15  88.5 -99.9 1014.2 -9.9 -9.999 -99.9 -99.99 -9.99
2019/05/19 16:54 EDT  -99.99 -99.99   13  188   15  88.7 -99.9 1014.1 -9.9 -9.999 -99.9 -99.99 -9.99
2019/05/19 17:00 EDT  -99.99 -99.99   13  193   15  88.3 -99.9 1014.1 -9.9 -9.999 -99.9 -99.99 -9.99
2019/05/19 17:06 EDT  -99.99 -99.99   11  188   15  88.2 -99.9 1014.0 -9.9 -9.999 -99.9 -99.99 -9.99
2019/05/19 17:12 EDT  -99.99 -99.99   14  187   17  88.9 -99.9 1013.9 -9.9 -9.999 -99.9 -99.99 -9.99
2019/05/19 17:18 EDT  -99.99 -99.99   15  197   17  88.9 -99.9 1013.9 -9.9 -9.999 -99.9 -99.99 -9.99
2019/05/19 17:24 EDT  -99.99 -99.99   11  194   15  87.8 -99.9 1013.9 -9.9 -9.999 -99.9 -99.99 -9.99
2019/05/19 17:30 EDT  -99.99 -99.99   14  204   16  88.7 -99.9 1013.9 -9.9 -9.999 -99.9 -99.99 -9.99
2019/05/19 17:36 EDT  -99.99 -99.99   14  195   16  89.1 -99.9 1013.8 -9.9 -9.999 -99.9 -99.99 -9.99
2019/05/19 17:42 EDT  -99.99 -99.99   12  198   18  88.5 -99.9 1013.8 -9.9 -9.999 -99.9 -99.99 -9.99
2019/05/19 17:48 EDT  -99.99 -99.99   12  203   16  88.3 -99.9 1013.8 -9.9 -9.999 -99.9 -99.99 -9.99
2019/05/19 17:54 EDT  -99.99 -99.99   14  211   16  88.2 -99.9 1013.8 -9.9 -9.999 -99.9 -99.99 -9.99
2019/05/19 18:00 EDT  -99.99 -99.99   13  210   17  88.5 -99.9 1013.7 -9.9 -9.999 -99.9 -99.99 -9.99
2019/05/19 18:06 EDT  -99.99 -99.99   16  209   18  88.9 -99.9 1013.7 -9.9 -9.999 -99.9 -99.99 -9.99
2019/05/19 18:12 EDT  -99.99 -99.99   14  206   17  88.7 -99.9 1013.7 -9.9 -9.999 -99.9 -99.99 -9.99
2019/05/19 18:18 EDT  -99.99 -99.99   14  204   17  89.1 -99.9 1013.7 -9.9 -9.999 -99.9 -99.99 -9.99
2019/05/19 18:24 EDT  -99.99 -99.99   13  208   15  88.5 -99.9 1013.6 -9.9 -9.999 -99.9 -99.99 -9.99
2019/05/19 18:30 EDT  -99.99 -99.99   13  207   15  88.0 -99.9 1013.6 -9.9 -9.999 -99.9 -99.99 -9.99
2019/05/19 18:36 EDT  -99.99 -99.99   12  203   14  87.8 -99.9 1013.6 -9.9 -9.999 -99.9 -99.99 -9.99
2019/05/19 18:42 EDT  -99.99 -99.99   11  202   14  88.2 -99.9 1013.6 -9.9 -9.999 -99.9 -99.99 -9.99
2019/05/19 18:48 EDT  -99.99 -99.99   12  194   16  88.2 -99.9 1013.5 -9.9 -9.999 -99.9 -99.99 -9.99
2019/05/19 18:54 EDT  -99.99 -99.99   14  201   16  88.3 -99.9 1013.6 -9.9 -9.999 -99.9 -99.99 -9.99
2019/05/19 19:00 EDT  -99.99 -99.99   14  203   16  88.2 -99.9 1013.5 -9.9 -9.999 -99.9 -99.99 -9.99
2019/05/19 19:06 EDT  -99.99 -99.99   12  199   15  88.3 -99.9 1013.6 -9.9 -9.999 -99.9 -99.99 -9.99
2019/05/19 19:12 EDT  -99.99 -99.99   12  200   14  88.3 -99.9 1013.6 -9.9 -9.999 -99.9 -99.99 -9.99
2019/05/19 19:18 EDT  -99.99 -99.99   11  204   13  88.0 -99.9 1013.7 -9.9 -9.999 -99.9 -99.99 -9.99
2019/05/19 19:24 EDT  -99.99 -99.99   13  202   16  88.0 -99.9 1013.7 -9.9 -9.999 -99.9 -99.99 -9.99
2019/05/19 19:30 EDT  -99.99 -99.99   11  199   13  87.8 -99.9 1013.7 -9.9 -9.999 -99.9 -99.99 -9.99
2019/05/19 19:36 EDT  -99.99 -99.99   11  200   12  87.4 -99.9 1013.7 -9.9 -9.999 -99.9 -99.99 -9.99
2019/05/19 19:42 EDT  -99.99 -99.99   12  194   14  87.4 -99.9 1013.6 -9.9 -9.999 -99.9 -99.99 -9.99
2019/05/19 19:48 EDT  -99.99 -99.99   13  194   14  87.3 -99.9 1013.6 -9.9 -9.999 -99.9 -99.99 -9.99
2019/05/19 19:54 EDT  -99.99 -99.99   11  193   14  86.9 -99.9 1013.6 -9.9 -9.999 -99.9 -99.99 -9.99
2019/05/19 20:00 EDT  -99.99 -99.99   12  195   13  87.1 -99.9 1013.6 -9.9 -9.999 -99.9 -99.99 -9.99
2019/05/19 20:06 EDT  -99.99 -99.99   11  197   14  86.7 -99.9 1013.6 -9.9 -9.999 -99.9 -99.99 -9.99
2019/05/19 20:12 EDT  -99.99 -99.99   12  192   14  86.9 -99.9 1013.6 -9.9 -9.999 -99.9 -99.99 -9.99
2019/05/19 20:18 EDT  -99.99 -99.99   11  191   13  86.4 -99.9 1013.6 -9.9 -9.999 -99.9 -99.99 -9.99
2019/05/19 20:24 EDT  -99.99 -99.99   11  190   13  86.2 -99.9 1013.7 -9.9 -9.999 -99.9 -99.99 -9.99
2019/05/19 20:30 EDT  -99.99 -99.99    9  181   12  85.6 -99.9 1013.7 -9.9 -9.999 -99.9 -99.99 -9.99
2019/05/19 20:36 EDT  -99.99 -99.99   10  181   11  85.1 -99.9 1013.7 -9.9 -9.999 -99.9 -99.99 -9.99
2019/05/19 20:42 EDT  -99.99 -99.99   11  161   12  85.5 -99.9 1013.8 -9.9 -9.999 -99.9 -99.99 -9.99
2019/05/19 20:48 EDT  -99.99 -99.99   11  163   12  84.4 -99.9 1013.8 -9.9 -9.999 -99.9 -99.99 -9.99
2019/05/19 20:54 EDT  -99.99 -99.99   13  173   14  83.8 -99.9 1013.9 -9.9 -9.999 -99.9 -99.99 -9.99
2019/05/19 21:00 EDT  -99.99 -99.99   16  179   18  83.8 -99.9 1013.8 -9.9 -9.999 -99.9 -99.99 -9.99
2019/05/19 21:06 EDT  -99.99 -99.99   16  179   20  83.7 -99.9 1013.9 -9.9 -9.999 -99.9 -99.99 -9.99
2019/05/19 21:12 EDT  -99.99 -99.99   18  179   20  83.7 -99.9 1013.9 -9.9 -9.999 -99.9 -99.99 -9.99
2019/05/19 21:18 EDT  -99.99 -99.99   17  183   20  83.1 -99.9 1014.0 -9.9 -9.999 -99.9 -99.99 -9.99
2019/05/19 21:24 EDT  -99.99 -99.99   16  183   19  82.8 -99.9 1014.1 -9.9 -9.999 -99.9 -99.99 -9.99
2019/05/19 21:30 EDT  -99.99 -99.99   16  181   19  82.6 -99.9 1014.2 -9.9 -9.999 -99.9 -99.99 -9.99
2019/05/19 21:36 EDT  -99.99 -99.99   17  181   21  82.6 -99.9 1014.2 -9.9 -9.999 -99.9 -99.99 -9.99
2019/05/19 21:42 EDT  -99.99 -99.99   17  179   20  82.2 -99.9 1014.2 -9.9 -9.999 -99.9 -99.99 -9.99
2019/05/19 21:48 EDT  -99.99 -99.99   16  180   19  82.0 -99.9 1014.3 -9.9 -9.999 -99.9 -99.99 -9.99
2019/05/19 21:54 EDT  -99.99 -99.99   17  184   18  82.2 -99.9 1014.3 -9.9 -9.999 -99.9 -99.99 -9.99
2019/05/19 22:00 EDT  -99.99 -99.99   17  182   20  81.9 -99.9 1014.3 -9.9 -9.999 -99.9 -99.99 -9.99
2019/05/19 22:06 EDT  -99.99 -99.99   15  185   18  81.3 -99.9 1014.5 -9.9 -9.999 -99.9 -99.99 -9.99
2019/05/19 22:12 EDT  -99.99 -99.99   17  188   20  81.9 -99.9 1014.5 -9.9 -9.999 -99.9 -99.99 -9.99
2019/05/19 22:18 EDT  -99.99 -99.99   16  191   21  81.1 -99.9 1014.6 -9.9 -9.999 -99.9 -99.99 -9.99
2019/05/19 22:24 EDT  -99.99 -99.99   18  189   21  81.1 -99.9 1014.7 -9.9 -9.999 -99.9 -99.99 -9.99
2019/05/19 22:30 EDT  -99.99 -99.99   17  190   21  81.1 -99.9 1014.7 -9.9 -9.999 -99.9 -99.99 -9.99
2019/05/19 22:36 EDT  -99.99 -99.99   15  190   19  81.0 -99.9 1014.8 -9.9 -9.999 -99.9 -99.99 -9.99
2019/05/19 22:42 EDT  -99.99 -99.99   17  189   19  80.8 -99.9 1014.8 -9.9 -9.999 -99.9 -99.99 -9.99
2019/05/19 22:48 EDT  -99.99 -99.99   17  187   19  80.6 -99.9 1014.8 -9.9 -9.999 -99.9 -99.99 -9.99
2019/05/19 22:54 EDT  -99.99 -99.99   17  188   20  80.4 -99.9 1014.7 -9.9 -9.999 -99.9 -99.99 -9.99
2019/05/19 23:00 EDT  -99.99 -99.99   17  185   22  80.2 -99.9 1014.6 -9.9 -9.999 -99.9 -99.99 -9.99
2019/05/19 23:06 EDT  -99.99 -99.99   17  184   21  80.2 -99.9 1014.6 -9.9 -9.999 -99.9 -99.99 -9.99
2019/05/19 23:12 EDT  -99.99 -99.99   19  188   21  80.1 -99.9 1014.6 -9.9 -9.999 -99.9 -99.99 -9.99
2019/05/19 23:18 EDT  -99.99 -99.99   16  191   20  79.5 -99.9 1014.6 -9.9 -9.999 -99.9 -99.99 -9.99
2019/05/19 23:24 EDT  -99.99 -99.99   18  194   21  80.1 -99.9 1014.7 -9.9 -9.999 -99.9 -99.99 -9.99
2019/05/19 23:30 EDT  -99.99 -99.99   16  193   22  79.5 -99.9 1014.7 -9.9 -9.999 -99.9 -99.99 -9.99
2019/05/19 23:36 EDT  -99.99 -99.99   18  191   21  79.3 -99.9 1014.6 -9.9 -9.999 -99.9 -99.99 -9.99
2019/05/19 23:42 EDT  -99.99 -99.99   19  189   21  79.3 -99.9 1014.7 -9.9 -9.999 -99.9 -99.99 -9.99
2019/05/19 23:48 EDT  -99.99 -99.99   17  193   21  79.0 -99.9 1014.8 -9.9 -9.999 -99.9 -99.99 -9.99
2019/05/19 23:54 EDT  -99.99 -99.99   17  196   21  79.0 -99.9 1014.8 -9.9 -9.999 -99.9 -99.99 -9.99
2019/05/20 00:00 EDT  -99.99 -99.99   18  196   22  78.6 -99.9 1014.7 -9.9 -9.999 -99.9 -99.99 -9.99
2019/05/20 00:06 EDT  -99.99 -99.99   18  195   20  78.6 -99.9 1014.7 -9.9 -9.999 -99.9 -99.99 -9.99
2019/05/20 00:12 EDT  -99.99 -99.99   18  197   21  78.6 -99.9 1014.7 -9.9 -9.999 -99.9 -99.99 -9.99
2019/05/20 00:18 EDT  -99.99 -99.99   17  197   19  78.4 -99.9 1014.8 -9.9 -9.999 -99.9 -99.99 -9.99
2019/05/20 00:24 EDT  -99.99 -99.99   16  196   20  78.1 -99.9 1014.8 -9.9 -9.999 -99.9 -99.99 -9.99
2019/05/20 00:30 EDT  -99.99 -99.99   17  195   19  77.9 -99.9 1014.7 -9.9 -9.999 -99.9 -99.99 -9.99
2019/05/20 00:36 EDT  -99.99 -99.99   16  194   20  77.5 -99.9 1014.7 -9.9 -9.999 -99.9 -99.99 -9.99
2019/05/20 00:42 EDT  -99.99 -99.99   18  194   20  77.7 -99.9 1014.6 -9.9 -9.999 -99.9 -99.99 -9.99
2019/05/20 00:48 EDT  -99.99 -99.99   16  197   20  77.4 -99.9 1014.7 -9.9 -9.999 -99.9 -99.99 -9.99
2019/05/20 00:54 EDT  -99.99 -99.99   15  199   18  77.0 -99.9 1014.8 -9.9 -9.999 -99.9 -99.99 -9.99
2019/05/20 01:00 EDT  -99.99 -99.99   14  201   17  77.0 -99.9 1014.9 -9.9 -9.999 -99.9 -99.99 -9.99
2019/05/20 01:06 EDT  -99.99 -99.99   16  202   19  77.0 -99.9 1014.8 -9.9 -9.999 -99.9 -99.99 -9.99
2019/05/20 01:12 EDT  -99.99 -99.99   16  205   18  77.0 -99.9 1014.8 -9.9 -9.999 -99.9 -99.99 -9.99
2019/05/20 01:18 EDT  -99.99 -99.99   16  204   18  76.8 -99.9 1014.7 -9.9 -9.999 -99.9 -99.99 -9.99
2019/05/20 01:24 EDT  -99.99 -99.99   15  204   19  76.5 -99.9 1014.7 -9.9 -9.999 -99.9 -99.99 -9.99
2019/05/20 01:30 EDT  -99.99 -99.99   16  203   19  76.5 -99.9 1014.7 -9.9 -9.999 -99.9 -99.99 -9.99
2019/05/20 01:36 EDT  -99.99 -99.99   15  199   17  76.3 -99.9 1014.8 -9.9 -9.999 -99.9 -99.99 -9.99
2019/05/20 01:42 EDT  -99.99 -99.99   15  201   18  76.1 -99.9 1014.9 -9.9 -9.999 -99.9 -99.99 -9.99
2019/05/20 01:48 EDT  -99.99 -99.99   16  202   19  76.1 -99.9 1014.9 -9.9 -9.999 -99.9 -99.99 -9.99
2019/05/20 01:54 EDT  -99.99 -99.99   14  198   16  75.7 -99.9 1014.9 -9.9 -9.999 -99.9 -99.99 -9.99
2019/05/20 02:00 EDT  -99.99 -99.99   14  202   17  75.6 -99.9 1014.8 -9.9 -9.999 -99.9 -99.99 -9.99
2019/05/20 02:06 EDT  -99.99 -99.99   14  198   18  75.2 -99.9 1014.8 -9.9 -9.999 -99.9 -99.99 -9.99
2019/05/20 02:12 EDT  -99.99 -99.99   15  193   18  75.4 -99.9 1014.7 -9.9 -9.999 -99.9 -99.99 -9.99
2019/05/20 02:18 EDT  -99.99 -99.99   14  196   17  75.0 -99.9 1014.7 -9.9 -9.999 -99.9 -99.99 -9.99
2019/05/20 02:24 EDT  -99.99 -99.99   13  199   17  74.8 -99.9 1014.7 -9.9 -9.999 -99.9 -99.99 -9.99
2019/05/20 02:30 EDT  -99.99 -99.99   15  197   19  74.8 -99.9 1014.7 -9.9 -9.999 -99.9 -99.99 -9.99
2019/05/20 02:36 EDT  -99.99 -99.99   15  197   17  74.7 -99.9 1014.6 -9.9 -9.999 -99.9 -99.99 -9.99
2019/05/20 02:42 EDT  -99.99 -99.99   16  195   19  74.7 -99.9 1014.5 -9.9 -9.999 -99.9 -99.99 -9.99
2019/05/20 02:48 EDT  -99.99 -99.99   16  194   19  74.5 -99.9 1014.5 -9.9 -9.999 -99.9 -99.99 -9.99
2019/05/20 02:54 EDT  -99.99 -99.99   15  199   19  74.5 -99.9 1014.5 -9.9 -9.999 -99.9 -99.99 -9.99
2019/05/20 03:00 EDT  -99.99 -99.99   16  200   20  74.5 -99.9 1014.4 -9.9 -9.999 -99.9 -99.99 -9.99
2019/05/20 03:06 EDT  -99.99 -99.99   16  197   19  74.3 -99.9 1014.4 -9.9 -9.999 -99.9 -99.99 -9.99
2019/05/20 03:12 EDT  -99.99 -99.99   16  201   19  74.3 -99.9 1014.4 -9.9 -9.999 -99.9 -99.99 -9.99
2019/05/20 03:18 EDT  -99.99 -99.99   16  202   19  74.1 -99.9 1014.4 -9.9 -9.999 -99.9 -99.99 -9.99
2019/05/20 03:24 EDT  -99.99 -99.99   18  203   19  74.1 -99.9 1014.4 -9.9 -9.999 -99.9 -99.99 -9.99
2019/05/20 03:30 EDT  -99.99 -99.99   17  204   21  73.8 -99.9 1014.4 -9.9 -9.999 -99.9 -99.99 -9.99
2019/05/20 03:36 EDT  -99.99 -99.99   18  207   22  73.8 -99.9 1014.5 -9.9 -9.999 -99.9 -99.99 -9.99
2019/05/20 03:42 EDT  -99.99 -99.99   18  206   23  73.6 -99.9 1014.6 -9.9 -9.999 -99.9 -99.99 -9.99
2019/05/20 03:48 EDT  -99.99 -99.99   18  208   21  73.6 -99.9 1014.5 -9.9 -9.999 -99.9 -99.99 -9.99
2019/05/20 03:54 EDT  -99.99 -99.99   16  209   21  73.2 -99.9 1014.6 -9.9 -9.999 -99.9 -99.99 -9.99
2019/05/20 04:00 EDT  -99.99 -99.99   17  210   20  73.2 -99.9 1014.5 -9.9 -9.999 -99.9 -99.99 -9.99
2019/05/20 04:06 EDT  -99.99 -99.99   17  210   20  73.0 -99.9 1014.4 -9.9 -9.999 -99.9 -99.99 -9.99
2019/05/20 04:12 EDT  -99.99 -99.99   18  212   20  73.0 -99.9 1014.4 -9.9 -9.999 -99.9 -99.99 -9.99
2019/05/20 04:18 EDT  -99.99 -99.99   17  212   19  72.9 -99.9 1014.4 -9.9 -9.999 -99.9 -99.99 -9.99
2019/05/20 04:24 EDT  -99.99 -99.99   18  215   20  72.7 -99.9 1014.4 -9.9 -9.999 -99.9 -99.99 -9.99
2019/05/20 04:30 EDT  -99.99 -99.99   17  214   20  72.5 -99.9 1014.3 -9.9 -9.999 -99.9 -99.99 -9.99
2019/05/20 04:36 EDT  -99.99 -99.99   17  212   19  72.5 -99.9 1014.2 -9.9 -9.999 -99.9 -99.99 -9.99
2019/05/20 04:42 EDT  -99.99 -99.99   18  214   21  72.5 -99.9 1014.2 -9.9 -9.999 -99.9 -99.99 -9.99
2019/05/20 04:48 EDT  -99.99 -99.99   19  215   22  72.3 -99.9 1014.2 -9.9 -9.999 -99.9 -99.99 -9.99
2019/05/20 04:54 EDT  -99.99 -99.99   17  218   20  72.3 -99.9 1014.2 -9.9 -9.999 -99.9 -99.99 -9.99
2019/05/20 05:00 EDT  -99.99 -99.99   17  215   20  72.3 -99.9 1014.2 -9.9 -9.999 -99.9 -99.99 -9.99
2019/05/20 05:06 EDT  -99.99 -99.99   18  218   20  72.1 -99.9 1014.2 -9.9 -9.999 -99.9 -99.99 -9.99
2019/05/20 05:12 EDT  -99.99 -99.99   17  217   21  71.8 -99.9 1014.2 -9.9 -9.999 -99.9 -99.99 -9.99
2019/05/20 05:18 EDT  -99.99 -99.99   19  215   21  72.0 -99.9 1014.1 -9.9 -9.999 -99.9 -99.99 -9.99
2019/05/20 05:24 EDT  -99.99 -99.99   17  215   21  71.8 -99.9 1014.2 -9.9 -9.999 -99.9 -99.99 -9.99
2019/05/20 05:30 EDT  -99.99 -99.99   17  215   21  71.8 -99.9 1014.2 -9.9 -9.999 -99.9 -99.99 -9.99
2019/05/20 05:36 EDT  -99.99 -99.99   17  216   20  71.6 -99.9 1014.3 -9.9 -9.999 -99.9 -99.99 -9.99
2019/05/20 05:42 EDT  -99.99 -99.99   17  216   20  71.6 -99.9 1014.3 -9.9 -9.999 -99.9 -99.99 -9.99
2019/05/20 05:48 EDT  -99.99 -99.99   17  218   20  71.6 -99.9 1014.3 -9.9 -9.999 -99.9 -99.99 -9.99
2019/05/20 05:54 EDT  -99.99 -99.99   17  218   19  71.4 -99.9 1014.4 -9.9 -9.999 -99.9 -99.99 -9.99
2019/05/20 06:00 EDT  -99.99 -99.99   16  217   20  71.4 -99.9 1014.5 -9.9 -9.999 -99.9 -99.99 -9.99
2019/05/20 06:06 EDT  -99.99 -99.99   15  218   17  71.4 -99.9 1014.5 -9.9 -9.999 -99.9 -99.99 -9.99
2019/05/20 06:12 EDT  -99.99 -99.99   14  216   17  71.2 -99.9 1014.4 -9.9 -9.999 -99.9 -99.99 -9.99
2019/05/20 06:18 EDT  -99.99 -99.99   14  217   17  71.2 -99.9 1014.5 -9.9 -9.999 -99.9 -99.99 -9.99
2019/05/20 06:24 EDT  -99.99 -99.99   14  214   16  71.2 -99.9 1014.6 -9.9 -9.999 -99.9 -99.99 -9.99
2019/05/20 06:30 EDT  -99.99 -99.99   13  218   15  71.2 -99.9 1014.6 -9.9 -9.999 -99.9 -99.99 -9.99
2019/05/20 06:36 EDT  -99.99 -99.99   13  218   15  71.2 -99.9 1014.6 -9.9 -9.999 -99.9 -99.99 -9.99
2019/05/20 06:42 EDT  -99.99 -99.99   14  218   15  71.4 -99.9 1014.6 -9.9 -9.999 -99.9 -99.99 -9.99
2019/05/20 06:48 EDT  -99.99 -99.99   14  212   16  71.4 -99.9 1014.6 -9.9 -9.999 -99.9 -99.99 -9.99
2019/05/20 06:54 EDT  -99.99 -99.99   13  213   16  71.6 -99.9 1014.6 -9.9 -9.999 -99.9 -99.99 -9.99
2019/05/20 07:00 EDT  -99.99 -99.99   14  218   15  71.6 -99.9 1014.7 -9.9 -9.999 -99.9 -99.99 -9.99
2019/05/20 07:06 EDT  -99.99 -99.99   13  214   15  71.6 -99.9 1014.6 -9.9 -9.999 -99.9 -99.99 -9.99
2019/05/20 07:12 EDT  -99.99 -99.99   13  213   16  71.6 -99.9 1014.6 -9.9 -9.999 -99.9 -99.99 -9.99
2019/05/20 07:18 EDT  -99.99 -99.99   14  216   16  71.8 -99.9 1014.6 -9.9 -9.999 -99.9 -99.99 -9.99
2019/05/20 07:24 EDT  -99.99 -99.99   15  216   17  72.0 -99.9 1014.6 -9.9 -9.999 -99.9 -99.99 -9.99
2019/05/20 07:30 EDT  -99.99 -99.99   15  219   16  72.0 -99.9 1014.6 -9.9 -9.999 -99.9 -99.99 -9.99
2019/05/20 07:36 EDT  -99.99 -99.99   15  226   16  72.0 -99.9 1014.6 -9.9 -9.999 -99.9 -99.99 -9.99
2019/05/20 07:42 EDT  -99.99 -99.99   16  228   18  72.1 -99.9 1014.5 -9.9 -9.999 -99.9 -99.99 -9.99
2019/05/20 07:48 EDT  -99.99 -99.99   14  224   17  72.3 -99.9 1014.4 -9.9 -9.999 -99.9 -99.99 -9.99
2019/05/20 07:54 EDT  -99.99 -99.99   16  226   18  72.5 -99.9 1014.4 -9.9 -9.999 -99.9 -99.99 -9.99
2019/05/20 08:00 EDT  -99.99 -99.99   15  226   19  72.5 -99.9 1014.4 -9.9 -9.999 -99.9 -99.99 -9.99
2019/05/20 08:06 EDT  -99.99 -99.99   15  226   18  72.7 -99.9 1014.4 -9.9 -9.999 -99.9 -99.99 -9.99
2019/05/20 08:12 EDT  -99.99 -99.99   17  227   19  73.0 -99.9 1014.4 -9.9 -9.999 -99.9 -99.99 -9.99
2019/05/20 08:18 EDT  -99.99 -99.99   15  233   19  72.9 -99.9 1014.5 -9.9 -9.999 -99.9 -99.99 -9.99
2019/05/20 08:24 EDT  -99.99 -99.99   15  232   17  72.9 -99.9 1014.5 -9.9 -9.999 -99.9 -99.99 -9.99
2019/05/20 08:30 EDT  -99.99 -99.99   16  234   21  73.0 -99.9 1014.4 -9.9 -9.999 -99.9 -99.99 -9.99
2019/05/20 08:36 EDT  -99.99 -99.99   15  230   18  73.0 -99.9 1014.5 -9.9 -9.999 -99.9 -99.99 -9.99
2019/05/20 08:42 EDT  -99.99 -99.99   15  232   17  73.0 -99.9 1014.5 -9.9 -9.999 -99.9 -99.99 -9.99
2019/05/20 08:48 EDT  -99.99 -99.99   15  237   18  73.0 -99.9 1014.5 -9.9 -9.999 -99.9 -99.99 -9.99
2019/05/20 08:54 EDT  -99.99 -99.99   15  241   18  73.0 -99.9 1014.5 -9.9 -9.999 -99.9 -99.99 -9.99
2019/05/20 09:00 EDT  -99.99 -99.99   15  236   18  73.2 -99.9 1014.4 -9.9 -9.999 -99.9 -99.99 -9.99
2019/05/20 09:06 EDT  -99.99 -99.99   17  230   18  73.4 -99.9 1014.4 -9.9 -9.999 -99.9 -99.99 -9.99
2019/05/20 09:12 EDT  -99.99 -99.99   16  229   18  73.4 -99.9 1014.5 -9.9 -9.999 -99.9 -99.99 -9.99
2019/05/20 09:18 EDT  -99.99 -99.99   16  229   18  73.6 -99.9 1014.5 -9.9 -9.999 -99.9 -99.99 -9.99
2019/05/20 09:24 EDT  -99.99 -99.99   15  228   17  73.6 -99.9 1014.5 -9.9 -9.999 -99.9 -99.99 -9.99
2019/05/20 09:30 EDT  -99.99 -99.99   15  227   18  73.9 -99.9 1014.4 -9.9 -9.999 -99.9 -99.99 -9.99
2019/05/20 09:36 EDT  -99.99 -99.99   16  225   19  74.3 -99.9 1014.4 -9.9 -9.999 -99.9 -99.99 -9.99
2019/05/20 09:42 EDT  -99.99 -99.99   14  223   17  74.3 -99.9 1014.5 -9.9 -9.999 -99.9 -99.99 -9.99
2019/05/20 09:48 EDT  -99.99 -99.99   13  224   15  74.5 -99.9 1014.5 -9.9 -9.999 -99.9 -99.99 -9.99
2019/05/20 09:54 EDT  -99.99 -99.99   14  225   15  74.8 -99.9 1014.4 -9.9 -9.999 -99.9 -99.99 -9.99
2019/05/20 10:00 EDT  -99.99 -99.99   13  227   16  74.8 -99.9 1014.5 -9.9 -9.999 -99.9 -99.99 -9.99
2019/05/20 10:06 EDT  -99.99 -99.99   13  225   14  74.8 -99.9 1014.4 -9.9 -9.999 -99.9 -99.99 -9.99
2019/05/20 10:12 EDT  -99.99 -99.99   13  223   14  75.2 -99.9 1014.3 -9.9 -9.999 -99.9 -99.99 -9.99
2019/05/20 10:18 EDT  -99.99 -99.99   13  226   15  75.4 -99.9 1014.3 -9.9 -9.999 -99.9 -99.99 -9.99
2019/05/20 10:24 EDT  -99.99 -99.99   13  227   14  75.6 -99.9 1014.2 -9.9 -9.999 -99.9 -99.99 -9.99
2019/05/20 10:30 EDT  -99.99 -99.99   12  224   14  75.6 -99.9 1014.2 -9.9 -9.999 -99.9 -99.99 -9.99
2019/05/20 10:36 EDT  -99.99 -99.99   10  222   12  75.7 -99.9 1014.2 -9.9 -9.999 -99.9 -99.99 -9.99
2019/05/20 10:42 EDT  -99.99 -99.99   12  221   14  76.1 -99.9 1014.1 -9.9 -9.999 -99.9 -99.99 -9.99
2019/05/20 10:48 EDT  -99.99 -99.99   13  224   14  76.5 -99.9 1014.0 -9.9 -9.999 -99.9 -99.99 -9.99
2019/05/20 10:54 EDT  -99.99 -99.99   13  221   14  76.5 -99.9 1013.9 -9.9 -9.999 -99.9 -99.99 -9.99
2019/05/20 11:00 EDT  -99.99 -99.99   14  221   16  77.0 -99.9 1013.9 -9.9 -9.999 -99.9 -99.99 -9.99
2019/05/20 11:06 EDT  -99.99 -99.99   14  230   17  76.8 -99.9 1013.9 -9.9 -9.999 -99.9 -99.99 -9.99
2019/05/20 11:12 EDT  -99.99 -99.99   13  234   15  77.4 -99.9 1013.8 -9.9 -9.999 -99.9 -99.99 -9.99
2019/05/20 11:18 EDT  -99.99 -99.99   10  231   13  76.3 -99.9 1013.9 -9.9 -9.999 -99.9 -99.99 -9.99
2019/05/20 11:24 EDT  -99.99 -99.99   12  223   13  77.4 -99.9 1013.9 -9.9 -9.999 -99.9 -99.99 -9.99
2019/05/20 11:30 EDT  -99.99 -99.99   12  229   14  77.7 -99.9 1013.8 -9.9 -9.999 -99.9 -99.99 -9.99
2019/05/20 11:36 EDT  -99.99 -99.99    8  230   13  76.1 -99.9 1013.8 -9.9 -9.999 -99.9 -99.99 -9.99
2019/05/20 11:42 EDT  -99.99 -99.99    9  236   12  77.2 -99.9 1013.7 -9.9 -9.999 -99.9 -99.99 -9.99
2019/05/20 11:48 EDT  -99.99 -99.99   10  240   12  77.7 -99.9 1013.7 -9.9 -9.999 -99.9 -99.99 -9.99
2019/05/20 11:54 EDT  -99.99 -99.99    9  236   11  77.5 -99.9 1013.7 -9.9 -9.999 -99.9 -99.99 -9.99
2019/05/20 12:00 EDT  -99.99 -99.99    9  227   11  77.7 -99.9 1013.7 -9.9 -9.999 -99.9 -99.99 -9.99
2019/05/20 12:06 EDT  -99.99 -99.99   11  229   11  77.9 -99.9 1013.6 -9.9 -9.999 -99.9 -99.99 -9.99
2019/05/20 12:12 EDT  -99.99 -99.99   10  229   11  78.3 -99.9 1013.5 -9.9 -9.999 -99.9 -99.99 -9.99
2019/05/20 12:18 EDT  -99.99 -99.99   12  228   12  78.4 -99.9 1013.3 -9.9 -9.999 -99.9 -99.99 -9.99
2019/05/20 12:24 EDT  -99.99 -99.99   12  231   13  78.8 -99.9 1013.2 -9.9 -9.999 -99.9 -99.99 -9.99
2019/05/20 12:30 EDT  -99.99 -99.99   14  231   15  79.5 -99.9 1013.2 -9.9 -9.999 -99.9 -99.99 -9.99
2019/05/20 12:36 EDT  -99.99 -99.99   11  231   14  79.0 -99.9 1013.2 -9.9 -9.999 -99.9 -99.99 -9.99
2019/05/20 12:42 EDT  -99.99 -99.99   12  231   14  79.0 -99.9 1013.1 -9.9 -9.999 -99.9 -99.99 -9.99
2019/05/20 12:48 EDT  -99.99 -99.99   15  230   16  80.1 -99.9 1013.0 -9.9 -9.999 -99.9 -99.99 -9.99
2019/05/20 12:54 EDT  -99.99 -99.99   12  233   14  78.8 -99.9 1012.9 -9.9 -9.999 -99.9 -99.99 -9.99
2019/05/20 13:00 EDT  -99.99 -99.99   13  230   13  79.5 -99.9 1012.8 -9.9 -9.999 -99.9 -99.99 -9.99
2019/05/20 13:06 EDT  -99.99 -99.99   14  232   15  79.9 -99.9 1012.7 -9.9 -9.999 -99.9 -99.99 -9.99
2019/05/20 13:12 EDT  -99.99 -99.99   14  228   15  80.2 -99.9 1012.6 -9.9 -9.999 -99.9 -99.99 -9.99
2019/05/20 13:18 EDT  -99.99 -99.99   14  228   16  79.9 -99.9 1012.5 -9.9 -9.999 -99.9 -99.99 -9.99
2019/05/20 13:24 EDT  -99.99 -99.99   14  231   16  80.2 -99.9 1012.4 -9.9 -9.999 -99.9 -99.99 -9.99
2019/05/20 13:30 EDT  -99.99 -99.99   15  230   17  81.0 -99.9 1012.3 -9.9 -9.999 -99.9 -99.99 -9.99
2019/05/20 13:36 EDT  -99.99 -99.99   15  232   16  80.4 -99.9 1012.3 -9.9 -9.999 -99.9 -99.99 -9.99
2019/05/20 13:42 EDT  -99.99 -99.99   14  235   16  81.3 -99.9 1012.2 -9.9 -9.999 -99.9 -99.99 -9.99
2019/05/20 13:48 EDT  -99.99 -99.99   15  229   16  81.5 -99.9 1012.1 -9.9 -9.999 -99.9 -99.99 -9.99
2019/05/20 13:54 EDT  -99.99 -99.99   14  225   16  81.0 -99.9 1012.1 -9.9 -9.999 -99.9 -99.99 -9.99
2019/05/20 14:00 EDT  -99.99 -99.99   14  233   16  82.0 -99.9 1011.9 -9.9 -9.999 -99.9 -99.99 -9.99
2019/05/20 14:06 EDT  -99.99 -99.99   13  226   15  81.3 -99.9 1011.8 -9.9 -9.999 -99.9 -99.99 -9.99
2019/05/20 14:12 EDT  -99.99 -99.99   14  226   17  81.5 -99.9 1011.7 -9.9 -9.999 -99.9 -99.99 -9.99
2019/05/20 14:18 EDT  -99.99 -99.99   16  225   16  81.9 -99.9 1011.7 -9.9 -9.999 -99.9 -99.99 -9.99
2019/05/20 14:24 EDT  -99.99 -99.99   15  226   16  83.3 -99.9 1011.6 -9.9 -9.999 -99.9 -99.99 -9.99
2019/05/20 14:30 EDT  -99.99 -99.99   14  226   16  82.2 -99.9 1011.6 -9.9 -9.999 -99.9 -99.99 -9.99
2019/05/20 14:36 EDT  -99.99 -99.99   14  223   15  82.6 -99.9 1011.5 -9.9 -9.999 -99.9 -99.99 -9.99
2019/05/20 14:42 EDT  -99.99 -99.99   13  235   17  82.8 -99.9 1011.4 -9.9 -9.999 -99.9 -99.99 -9.99
2019/05/20 14:48 EDT  -99.99 -99.99   13  228   15  81.9 -99.9 1011.4 -9.9 -9.999 -99.9 -99.99 -9.99
2019/05/20 14:54 EDT  -99.99 -99.99   17  223   18  84.6 -99.9 1011.2 -9.9 -9.999 -99.9 -99.99 -9.99
2019/05/20 15:00 EDT  -99.99 -99.99   14  222   19  82.8 -99.9 1011.2 -9.9 -9.999 -99.9 -99.99 -9.99
2019/05/20 15:06 EDT  -99.99 -99.99   14  226   15  83.3 -99.9 1011.1 -9.9 -9.999 -99.9 -99.99 -9.99
2019/05/20 15:12 EDT  -99.99 -99.99   14  227   17  82.6 -99.9 1011.0 -9.9 -9.999 -99.9 -99.99 -9.99
2019/05/20 15:18 EDT  -99.99 -99.99   16  229   17  83.5 -99.9 1010.8 -9.9 -9.999 -99.9 -99.99 -9.99
2019/05/20 15:24 EDT  -99.99 -99.99   16  229   19  83.5 -99.9 1010.8 -9.9 -9.999 -99.9 -99.99 -9.99
2019/05/20 15:30 EDT  -99.99 -99.99   15  230   16  84.0 -99.9 1010.6 -9.9 -9.999 -99.9 -99.99 -9.99
2019/05/20 15:36 EDT  -99.99 -99.99   16  226   17  84.0 -99.9 1010.6 -9.9 -9.999 -99.9 -99.99 -9.99
2019/05/20 15:42 EDT  -99.99 -99.99   17  226   19  84.0 -99.9 1010.4 -9.9 -9.999 -99.9 -99.99 -9.99
2019/05/20 15:48 EDT  -99.99 -99.99   16  219   21  84.0 -99.9 1010.5 -9.9 -9.999 -99.9 -99.99 -9.99
2019/05/20 15:54 EDT  -99.99 -99.99   15  226   17  83.8 -99.9 1010.3 -9.9 -9.999 -99.9 -99.99 -9.99
2019/05/20 16:00 EDT  -99.99 -99.99   16  219   18  84.9 -99.9 1010.2 -9.9 -9.999 -99.9 -99.99 -9.99
2019/05/20 16:06 EDT  -99.99 -99.99   16  229   19  84.2 -99.9 1010.1 -9.9 -9.999 -99.9 -99.99 -9.99
2019/05/20 16:12 EDT  -99.99 -99.99   13  228   16  82.4 -99.9 1010.1 -9.9 -9.999 -99.9 -99.99 -9.99
2019/05/20 16:18 EDT  -99.99 -99.99   16  229   17  83.3 -99.9 1010.0 -9.9 -9.999 -99.9 -99.99 -9.99
2019/05/20 16:24 EDT  -99.99 -99.99   16  220   18  84.0 -99.9 1009.9 -9.9 -9.999 -99.9 -99.99 -9.99
2019/05/20 16:30 EDT  -99.99 -99.99   15  224   21  83.8 -99.9 1009.9 -9.9 -9.999 -99.9 -99.99 -9.99
2019/05/20 16:36 EDT  -99.99 -99.99   16  218   18  83.7 -99.9 1009.9 -9.9 -9.999 -99.9 -99.99 -9.99
2019/05/20 16:42 EDT  -99.99 -99.99   16  221   17  84.0 -99.9 1009.8 -9.9 -9.999 -99.9 -99.99 -9.99
2019/05/20 16:48 EDT  -99.99 -99.99   15  225   17  83.8 -99.9 1009.9 -9.9 -9.999 -99.9 -99.99 -9.99
2019/05/20 16:54 EDT  -99.99 -99.99   15  224   16  83.7 -99.9 1009.9 -9.9 -9.999 -99.9 -99.99 -9.99
2019/05/20 17:00 EDT  -99.99 -99.99   16  222   17  84.2 -99.9 1009.8 -9.9 -9.999 -99.9 -99.99 -9.99
2019/05/20 17:06 EDT  -99.99 -99.99   13  223   16  82.8 -99.9 1009.9 -9.9 -9.999 -99.9 -99.99 -9.99
2019/05/20 17:12 EDT  -99.99 -99.99   13  230   14  82.8 -99.9 1009.8 -9.9 -9.999 -99.9 -99.99 -9.99
2019/05/20 17:18 EDT  -99.99 -99.99   14  230   15  83.8 -99.9 1009.8 -9.9 -9.999 -99.9 -99.99 -9.99
2019/05/20 17:24 EDT  -99.99 -99.99   15  225   17  83.5 -99.9 1009.7 -9.9 -9.999 -99.9 -99.99 -9.99
2019/05/20 17:30 EDT  -99.99 -99.99   17  223   20  84.4 -99.9 1009.7 -9.9 -9.999 -99.9 -99.99 -9.99
2019/05/20 17:36 EDT  -99.99 -99.99   16  216   18  84.4 -99.9 1009.6 -9.9 -9.999 -99.9 -99.99 -9.99
2019/05/20 17:42 EDT  -99.99 -99.99   15  218   20  84.2 -99.9 1009.6 -9.9 -9.999 -99.9 -99.99 -9.99
2019/05/20 17:48 EDT  -99.99 -99.99   17  221   19  84.4 -99.9 1009.6 -9.9 -9.999 -99.9 -99.99 -9.99
2019/05/20 17:54 EDT  -99.99 -99.99   13  221   16  82.8 -99.9 1009.7 -9.9 -9.999 -99.9 -99.99 -9.99
2019/05/20 18:00 EDT  -99.99 -99.99   15  221   18  83.1 -99.9 1009.5 -9.9 -9.999 -99.9 -99.99 -9.99
2019/05/20 18:06 EDT  -99.99 -99.99   15  224   17  83.1 -99.9 1009.5 -9.9 -9.999 -99.9 -99.99 -9.99
2019/05/20 18:12 EDT  -99.99 -99.99   16  224   17  83.5 -99.9 1009.5 -9.9 -9.999 -99.9 -99.99 -9.99
2019/05/20 18:18 EDT  -99.99 -99.99   16  214   18  84.9 -99.9 1009.4 -9.9 -9.999 -99.9 -99.99 -9.99
2019/05/20 18:24 EDT  -99.99 -99.99   17  212   20  86.0 -99.9 1009.4 -9.9 -9.999 -99.9 -99.99 -9.99
2019/05/20 18:30 EDT  -99.99 -99.99   17  212   19  85.5 -99.9 1009.4 -9.9 -9.999 -99.9 -99.99 -9.99
2019/05/20 18:36 EDT  -99.99 -99.99   16  214   19  85.6 -99.9 1009.4 -9.9 -9.999 -99.9 -99.99 -9.99
2019/05/20 18:42 EDT  -99.99 -99.99   15  213   17  85.8 -99.9 1009.4 -9.9 -9.999 -99.9 -99.99 -9.99
2019/05/20 18:48 EDT  -99.99 -99.99   14  211   16  85.8 -99.9 1009.4 -9.9 -9.999 -99.9 -99.99 -9.99
2019/05/20 18:54 EDT  -99.99 -99.99   15  217   17  84.9 -99.9 1009.4 -9.9 -9.999 -99.9 -99.99 -9.99
2019/05/20 19:00 EDT  -99.99 -99.99   17  215   18  84.9 -99.9 1009.5 -9.9 -9.999 -99.9 -99.99 -9.99
2019/05/20 19:06 EDT  -99.99 -99.99   17  215   20  84.4 -99.9 1009.5 -9.9 -9.999 -99.9 -99.99 -9.99
2019/05/20 19:12 EDT  -99.99 -99.99   16  215   18  84.2 -99.9 1009.5 -9.9 -9.999 -99.9 -99.99 -9.99
2019/05/20 19:18 EDT  -99.99 -99.99   15  217   17  84.0 -99.9 1009.6 -9.9 -9.999 -99.9 -99.99 -9.99
2019/05/20 19:24 EDT  -99.99 -99.99   15  218   17  83.7 -99.9 1009.7 -9.9 -9.999 -99.9 -99.99 -9.99
2019/05/20 19:30 EDT  -99.99 -99.99   14  215   16  83.5 -99.9 1009.6 -9.9 -9.999 -99.9 -99.99 -9.99
2019/05/20 19:36 EDT  -99.99 -99.99   15  215   16  83.7 -99.9 1009.7 -9.9 -9.999 -99.9 -99.99 -9.99
2019/05/20 19:42 EDT  -99.99 -99.99   13  217   15  83.3 -99.9 1009.8 -9.9 -9.999 -99.9 -99.99 -9.99
2019/05/20 19:48 EDT  -99.99 -99.99   11  219   13  81.7 -99.9 1009.8 -9.9 -9.999 -99.9 -99.99 -9.99
2019/05/20 19:54 EDT  -99.99 -99.99   12  216   13  82.0 -99.9 1009.8 -9.9 -9.999 -99.9 -99.99 -9.99
2019/05/20 20:00 EDT  -99.99 -99.99   14  213   14  83.3 -99.9 1009.7 -9.9 -9.999 -99.9 -99.99 -9.99
2019/05/20 20:06 EDT  -99.99 -99.99   12  210   14  83.7 -99.9 1009.8 -9.9 -9.999 -99.9 -99.99 -9.99
2019/05/20 20:12 EDT  -99.99 -99.99   11  208   14  84.2 -99.9 1009.8 -9.9 -9.999 -99.9 -99.99 -9.99
2019/05/20 20:18 EDT  -99.99 -99.99   11  207   13  84.2 -99.9 1009.7 -9.9 -9.999 -99.9 -99.99 -9.99
2019/05/20 20:24 EDT  -99.99 -99.99   12  206   14  83.8 -99.9 1009.7 -9.9 -9.999 -99.9 -99.99 -9.99
2019/05/20 20:30 EDT  -99.99 -99.99   13  207   15  83.7 -99.9 1009.7 -9.9 -9.999 -99.9 -99.99 -9.99
2019/05/20 20:36 EDT  -99.99 -99.99   11  274   14  79.0 -99.9 1010.0 -9.9 -9.999 -99.9 -99.99 -9.99
2019/05/20 20:42 EDT  -99.99 -99.99   14  295   16  81.5 -99.9 1010.3 -9.9 -9.999 -99.9 -99.99 -9.99
2019/05/20 20:48 EDT  -99.99 -99.99   14  321   18  81.3 -99.9 1010.4 -9.9 -9.999 -99.9 -99.99 -9.99
2019/05/20 20:54 EDT  -99.99 -99.99   12  327   16  79.2 -99.9 1010.4 -9.9 -9.999 -99.9 -99.99 -9.99
2019/05/20 21:00 EDT  -99.99 -99.99    9  326   14  78.4 -99.9 1010.4 -9.9 -9.999 -99.9 -99.99 -9.99
2019/05/20 21:06 EDT  -99.99 -99.99    8  315   10  78.4 -99.9 1010.5 -9.9 -9.999 -99.9 -99.99 -9.99
2019/05/20 21:12 EDT  -99.99 -99.99    6  304    8  77.9 -99.9 1010.5 -9.9 -9.999 -99.9 -99.99 -9.99
2019/05/20 21:18 EDT  -99.99 -99.99    5  296    8  77.4 -99.9 1010.5 -9.9 -9.999 -99.9 -99.99 -9.99
2019/05/20 21:24 EDT  -99.99 -99.99    4  209    5  77.2 -99.9 1010.7 -9.9 -9.999 -99.9 -99.99 -9.99
2019/05/20 21:30 EDT  -99.99 -99.99    3  240    5  77.7 -99.9 1010.6 -9.9 -9.999 -99.9 -99.99 -9.99
2019/05/20 21:36 EDT  -99.99 -99.99    4  228    4  77.9 -99.9 1010.6 -9.9 -9.999 -99.9 -99.99 -9.99
2019/05/20 21:42 EDT  -99.99 -99.99    4  202    4  78.3 -99.9 1010.5 -9.9 -9.999 -99.9 -99.99 -9.99
2019/05/20 21:48 EDT  -99.99 -99.99    3  204    5  78.4 -99.9 1010.5 -9.9 -9.999 -99.9 -99.99 -9.99
2019/05/20 21:54 EDT  -99.99 -99.99    5  234    6  78.4 -99.9 1010.6 -9.9 -9.999 -99.9 -99.99 -9.99
2019/05/20 22:00 EDT  -99.99 -99.99   13  223   16  78.8 -99.9 1010.7 -9.9 -9.999 -99.9 -99.99 -9.99
2019/05/20 22:06 EDT  -99.99 -99.99   19  218   22  78.1 -99.9 1010.9 -9.9 -9.999 -99.9 -99.99 -9.99
2019/05/20 22:12 EDT  -99.99 -99.99   24  251   32  74.1 -99.9 1010.7 -9.9 -9.999 -99.9 -99.99 -9.99
2019/05/20 22:18 EDT  -99.99 -99.99   21  239   26  72.9 -99.9 1010.3 -9.9 -9.999 -99.9 -99.99 -9.99
2019/05/20 22:24 EDT  -99.99 -99.99   23  245   37  68.7 -99.9 1010.7 -9.9 -9.999 -99.9 -99.99 -9.99
2019/05/20 22:30 EDT  -99.99 -99.99   17  234   23  69.1 -99.9 1010.9 -9.9 -9.999 -99.9 -99.99 -9.99
2019/05/20 22:36 EDT  -99.99 -99.99   14  234   20  70.0 -99.9 1010.8 -9.9 -9.999 -99.9 -99.99 -9.99
2019/05/20 22:42 EDT  -99.99 -99.99   13  212   15  71.4 -99.9 1010.7 -9.9 -9.999 -99.9 -99.99 -9.99
2019/05/20 22:48 EDT  -99.99 -99.99   12  191   13  74.8 -99.9 1010.5 -9.9 -9.999 -99.9 -99.99 -9.99
2019/05/20 22:54 EDT  -99.99 -99.99   11  176   13  74.8 -99.9 1010.4 -9.9 -9.999 -99.9 -99.99 -9.99
2019/05/20 23:00 EDT  -99.99 -99.99   12  189   12  74.8 -99.9 1010.6 -9.9 -9.999 -99.9 -99.99 -9.99
2019/05/20 23:06 EDT  -99.99 -99.99   11  201   13  76.1 -99.9 1010.8 -9.9 -9.999 -99.9 -99.99 -9.99
2019/05/20 23:12 EDT  -99.99 -99.99   26  214   31  75.6 -99.9 1010.8 -9.9 -9.999 -99.9 -99.99 -9.99
2019/05/20 23:18 EDT  -99.99 -99.99   22  197   27  74.7 -99.9 1011.1 -9.9 -9.999 -99.9 -99.99 -9.99
2019/05/20 23:24 EDT  -99.99 -99.99   20  193   22  74.8 -99.9 1011.1 -9.9 -9.999 -99.9 -99.99 -9.99
2019/05/20 23:30 EDT  -99.99 -99.99   17  196   22  74.5 -99.9 1011.1 -9.9 -9.999 -99.9 -99.99 -9.99
2019/05/20 23:36 EDT  -99.99 -99.99   16  205   18  73.9 -99.9 1011.2 -9.9 -9.999 -99.9 -99.99 -9.99
2019/05/20 23:42 EDT  -99.99 -99.99   12  203   17  73.6 -99.9 1011.1 -9.9 -9.999 -99.9 -99.99 -9.99
2019/05/20 23:48 EDT  -99.99 -99.99   10  200   13  73.6 -99.9 1011.1 -9.9 -9.999 -99.9 -99.99 -9.99
2019/05/20 23:54 EDT  -99.99 -99.99   10  200   12  73.8 -99.9 1011.2 -9.9 -9.999 -99.9 -99.99 -9.99
2019/05/21 00:00 EDT  -99.99 -99.99   12  209   14  73.9 -99.9 1011.2 -9.9 -9.999 -99.9 -99.99 -9.99
2019/05/21 00:06 EDT  -99.99 -99.99   12  217   15  73.6 -99.9 1011.3 -9.9 -9.999 -99.9 -99.99 -9.99
2019/05/21 00:12 EDT  -99.99 -99.99   12  217   13  72.9 -99.9 1011.2 -9.9 -9.999 -99.9 -99.99 -9.99
2019/05/21 00:18 EDT  -99.99 -99.99   13  211   14  73.0 -99.9 1011.1 -9.9 -9.999 -99.9 -99.99 -9.99
2019/05/21 00:24 EDT  -99.99 -99.99   11  211   15  72.9 -99.9 1011.0 -9.9 -9.999 -99.9 -99.99 -9.99
2019/05/21 00:30 EDT  -99.99 -99.99   12  211   14  72.9 -99.9 1010.9 -9.9 -9.999 -99.9 -99.99 -9.99
2019/05/21 00:36 EDT  -99.99 -99.99   13  207   16  73.0 -99.9 1010.7 -9.9 -9.999 -99.9 -99.99 -9.99
2019/05/21 00:42 EDT  -99.99 -99.99   13  210   15  73.2 -99.9 1010.7 -9.9 -9.999 -99.9 -99.99 -9.99
2019/05/21 00:48 EDT  -99.99 -99.99   15  201   17  73.2 -99.9 1010.7 -9.9 -9.999 -99.9 -99.99 -9.99
2019/05/21 00:54 EDT  -99.99 -99.99   15  205   17  73.2 -99.9 1010.7 -9.9 -9.999 -99.9 -99.99 -9.99
2019/05/21 01:00 EDT  -99.99 -99.99   12  199   16  73.0 -99.9 1010.8 -9.9 -9.999 -99.9 -99.99 -9.99
2019/05/21 01:06 EDT  -99.99 -99.99   14  199   15  72.9 -99.9 1010.7 -9.9 -9.999 -99.9 -99.99 -9.99
2019/05/21 01:12 EDT  -99.99 -99.99   11  199   14  72.7 -99.9 1010.7 -9.9 -9.999 -99.9 -99.99 -9.99
2019/05/21 01:18 EDT  -99.99 -99.99   11  207   13  72.7 -99.9 1010.7 -9.9 -9.999 -99.9 -99.99 -9.99
2019/05/21 01:24 EDT  -99.99 -99.99    9  207   13  72.5 -99.9 1010.7 -9.9 -9.999 -99.9 -99.99 -9.99
2019/05/21 01:30 EDT  -99.99 -99.99   10  209   11  72.5 -99.9 1010.7 -9.9 -9.999 -99.9 -99.99 -9.99
2019/05/21 01:36 EDT  -99.99 -99.99   11  210   12  72.5 -99.9 1010.6 -9.9 -9.999 -99.9 -99.99 -9.99
2019/05/21 01:42 EDT  -99.99 -99.99   11  214   13  72.5 -99.9 1010.7 -9.9 -9.999 -99.9 -99.99 -9.99
2019/05/21 01:48 EDT  -99.99 -99.99   10  215   12  72.5 -99.9 1010.7 -9.9 -9.999 -99.9 -99.99 -9.99
2019/05/21 01:54 EDT  -99.99 -99.99    9  225   12  72.3 -99.9 1010.8 -9.9 -9.999 -99.9 -99.99 -9.99
2019/05/21 02:00 EDT  -99.99 -99.99   11  227   12  72.0 -99.9 1010.8 -9.9 -9.999 -99.9 -99.99 -9.99
2019/05/21 02:06 EDT  -99.99 -99.99    9  231   11  72.0 -99.9 1010.8 -9.9 -9.999 -99.9 -99.99 -9.99
2019/05/21 02:12 EDT  -99.99 -99.99    9  232   10  72.1 -99.9 1010.8 -9.9 -9.999 -99.9 -99.99 -9.99
2019/05/21 02:18 EDT  -99.99 -99.99    9  235   10  72.1 -99.9 1010.8 -9.9 -9.999 -99.9 -99.99 -9.99
2019/05/21 02:24 EDT  -99.99 -99.99    9  240   12  72.0 -99.9 1010.8 -9.9 -9.999 -99.9 -99.99 -9.99
2019/05/21 02:30 EDT  -99.99 -99.99   11  246   12  72.0 -99.9 1010.7 -9.9 -9.999 -99.9 -99.99 -9.99
2019/05/21 02:36 EDT  -99.99 -99.99   11  238   13  72.1 -99.9 1010.7 -9.9 -9.999 -99.9 -99.99 -9.99
2019/05/21 02:42 EDT  -99.99 -99.99   10  239   11  72.1 -99.9 1010.8 -9.9 -9.999 -99.9 -99.99 -9.99
2019/05/21 02:48 EDT  -99.99 -99.99   10  237   12  72.3 -99.9 1010.9 -9.9 -9.999 -99.9 -99.99 -9.99
2019/05/21 02:54 EDT  -99.99 -99.99    8  244    9  72.1 -99.9 1010.9 -9.9 -9.999 -99.9 -99.99 -9.99
2019/05/21 03:00 EDT  -99.99 -99.99   10  248   11  72.1 -99.9 1010.9 -9.9 -9.999 -99.9 -99.99 -9.99
2019/05/21 03:06 EDT  -99.99 -99.99    9  269   12  72.1 -99.9 1011.1 -9.9 -9.999 -99.9 -99.99 -9.99
2019/05/21 03:12 EDT  -99.99 -99.99    9  288    9  72.0 -99.9 1011.1 -9.9 -9.999 -99.9 -99.99 -9.99
2019/05/21 03:18 EDT  -99.99 -99.99   11  285   12  72.1 -99.9 1011.1 -9.9 -9.999 -99.9 -99.99 -9.99
2019/05/21 03:24 EDT  -99.99 -99.99   10  290   11  72.1 -99.9 1011.0 -9.9 -9.999 -99.9 -99.99 -9.99
2019/05/21 03:30 EDT  -99.99 -99.99   10  291   11  72.0 -99.9 1010.9 -9.9 -9.999 -99.9 -99.99 -9.99
2019/05/21 03:36 EDT  -99.99 -99.99   11  289   12  72.0 -99.9 1010.9 -9.9 -9.999 -99.9 -99.99 -9.99
2019/05/21 03:42 EDT  -99.99 -99.99   10  283   11  72.0 -99.9 1011.0 -9.9 -9.999 -99.9 -99.99 -9.99
2019/05/21 03:48 EDT  -99.99 -99.99   10  283   10  72.0 -99.9 1011.2 -9.9 -9.999 -99.9 -99.99 -9.99
2019/05/21 03:54 EDT  -99.99 -99.99    9  287   11  72.0 -99.9 1011.3 -9.9 -9.999 -99.9 -99.99 -9.99
2019/05/21 04:00 EDT  -99.99 -99.99    9  282   10  72.0 -99.9 1011.4 -9.9 -9.999 -99.9 -99.99 -9.99
2019/05/21 04:06 EDT  -99.99 -99.99    7  287    9  72.0 -99.9 1011.4 -9.9 -9.999 -99.9 -99.99 -9.99
2019/05/21 04:12 EDT  -99.99 -99.99    6  295    7  72.0 -99.9 1011.3 -9.9 -9.999 -99.9 -99.99 -9.99
2019/05/21 04:18 EDT  -99.99 -99.99    8  295    9  72.1 -99.9 1011.3 -9.9 -9.999 -99.9 -99.99 -9.99
2019/05/21 04:24 EDT  -99.99 -99.99    8  300    9  72.1 -99.9 1011.3 -9.9 -9.999 -99.9 -99.99 -9.99
2019/05/21 04:30 EDT  -99.99 -99.99    7  311    9  72.1 -99.9 1011.2 -9.9 -9.999 -99.9 -99.99 -9.99
2019/05/21 04:36 EDT  -99.99 -99.99    7  315    8  72.0 -99.9 1011.2 -9.9 -9.999 -99.9 -99.99 -9.99
2019/05/21 04:42 EDT  -99.99 -99.99    7  310    8  72.0 -99.9 1011.3 -9.9 -9.999 -99.9 -99.99 -9.99
2019/05/21 04:48 EDT  -99.99 -99.99    7  313    8  72.0 -99.9 1011.4 -9.9 -9.999 -99.9 -99.99 -9.99
2019/05/21 04:54 EDT  -99.99 -99.99    9  319   11  72.1 -99.9 1011.6 -9.9 -9.999 -99.9 -99.99 -9.99
2019/05/21 05:00 EDT  -99.99 -99.99   10  320   11  72.3 -99.9 1011.5 -9.9 -9.999 -99.9 -99.99 -9.99
2019/05/21 05:06 EDT  -99.99 -99.99    9  324   11  72.3 -99.9 1011.5 -9.9 -9.999 -99.9 -99.99 -9.99
2019/05/21 05:12 EDT  -99.99 -99.99    8  326    9  72.5 -99.9 1011.5 -9.9 -9.999 -99.9 -99.99 -9.99
2019/05/21 05:18 EDT  -99.99 -99.99    7  321   10  72.5 -99.9 1011.6 -9.9 -9.999 -99.9 -99.99 -9.99
2019/05/21 05:24 EDT  -99.99 -99.99    7  318    8  72.3 -99.9 1011.6 -9.9 -9.999 -99.9 -99.99 -9.99
2019/05/21 05:30 EDT  -99.99 -99.99    7  320    8  72.3 -99.9 1011.7 -9.9 -9.999 -99.9 -99.99 -9.99
2019/05/21 05:36 EDT  -99.99 -99.99    7  326    8  72.1 -99.9 1011.8 -9.9 -9.999 -99.9 -99.99 -9.99
2019/05/21 05:42 EDT  -99.99 -99.99    7  329    9  72.1 -99.9 1011.8 -9.9 -9.999 -99.9 -99.99 -9.99
2019/05/21 05:48 EDT  -99.99 -99.99    7  336    8  72.3 -99.9 1012.0 -9.9 -9.999 -99.9 -99.99 -9.99
2019/05/21 05:54 EDT  -99.99 -99.99    8  338    9  72.3 -99.9 1012.1 -9.9 -9.999 -99.9 -99.99 -9.99
2019/05/21 06:00 EDT  -99.99 -99.99   10  343   11  72.3 -99.9 1012.1 -9.9 -9.999 -99.9 -99.99 -9.99
2019/05/21 06:06 EDT  -99.99 -99.99   10  347   13  72.3 -99.9 1012.2 -9.9 -9.999 -99.9 -99.99 -9.99
2019/05/21 06:12 EDT  -99.99 -99.99   12  350   16  72.3 -99.9 1012.2 -9.9 -9.999 -99.9 -99.99 -9.99
2019/05/21 06:18 EDT  -99.99 -99.99   11  351   14  72.1 -99.9 1012.3 -9.9 -9.999 -99.9 -99.99 -9.99
2019/05/21 06:24 EDT  -99.99 -99.99   11  357   14  72.1 -99.9 1012.4 -9.9 -9.999 -99.9 -99.99 -9.99
2019/05/21 06:30 EDT  -99.99 -99.99   12  354   14  72.0 -99.9 1012.5 -9.9 -9.999 -99.9 -99.99 -9.99
2019/05/21 06:36 EDT  -99.99 -99.99   12  354   15  72.0 -99.9 1012.7 -9.9 -9.999 -99.9 -99.99 -9.99
2019/05/21 06:42 EDT  -99.99 -99.99   13  357   16  71.8 -99.9 1012.9 -9.9 -9.999 -99.9 -99.99 -9.99
2019/05/21 06:48 EDT  -99.99 -99.99   14    1   15  71.8 -99.9 1013.0 -9.9 -9.999 -99.9 -99.99 -9.99
2019/05/21 06:54 EDT  -99.99 -99.99   13    8   16  71.8 -99.9 1013.0 -9.9 -9.999 -99.9 -99.99 -9.99
2019/05/21 07:00 EDT  -99.99 -99.99   13   10   15  71.8 -99.9 1013.2 -9.9 -9.999 -99.9 -99.99 -9.99
2019/05/21 07:06 EDT  -99.99 -99.99   11    2   17  71.6 -99.9 1013.2 -9.9 -9.999 -99.9 -99.99 -9.99
2019/05/21 07:12 EDT  -99.99 -99.99   11    3   15  71.6 -99.9 1013.3 -9.9 -9.999 -99.9 -99.99 -9.99
2019/05/21 07:18 EDT  -99.99 -99.99   14    3   17  71.8 -99.9 1013.5 -9.9 -9.999 -99.9 -99.99 -9.99
2019/05/21 07:24 EDT  -99.99 -99.99   13    6   17  71.8 -99.9 1013.7 -9.9 -9.999 -99.9 -99.99 -9.99
2019/05/21 07:30 EDT  -99.99 -99.99   14   16   18  71.6 -99.9 1013.8 -9.9 -9.999 -99.9 -99.99 -9.99
2019/05/21 07:36 EDT  -99.99 -99.99   15   16   17  71.2 -99.9 1013.9 -9.9 -9.999 -99.9 -99.99 -9.99
2019/05/21 07:42 EDT  -99.99 -99.99   17   13   18  71.1 -99.9 1014.0 -9.9 -9.999 -99.9 -99.99 -9.99
2019/05/21 07:48 EDT  -99.99 -99.99   16   10   21  70.9 -99.9 1014.0 -9.9 -9.999 -99.9 -99.99 -9.99
2019/05/21 07:54 EDT  -99.99 -99.99   15    9   20  70.9 -99.9 1014.1 -9.9 -9.999 -99.9 -99.99 -9.99
2019/05/21 08:00 EDT  -99.99 -99.99   19   11   22  70.7 -99.9 1014.2 -9.9 -9.999 -99.9 -99.99 -9.99
2019/05/21 08:06 EDT  -99.99 -99.99   16    9   21  70.7 -99.9 1014.2 -9.9 -9.999 -99.9 -99.99 -9.99
2019/05/21 08:12 EDT  -99.99 -99.99   17   14   22  70.9 -99.9 1014.3 -9.9 -9.999 -99.9 -99.99 -9.99
2019/05/21 08:18 EDT  -99.99 -99.99   16    8   22  70.7 -99.9 1014.4 -9.9 -9.999 -99.9 -99.99 -9.99
2019/05/21 08:24 EDT  -99.99 -99.99   18    5   23  70.5 -99.9 1014.5 -9.9 -9.999 -99.9 -99.99 -9.99
2019/05/21 08:30 EDT  -99.99 -99.99   18    6   22  70.3 -99.9 1014.5 -9.9 -9.999 -99.9 -99.99 -9.99
2019/05/21 08:36 EDT  -99.99 -99.99   14   12   20  70.2 -99.9 1014.4 -9.9 -9.999 -99.9 -99.99 -9.99
2019/05/21 08:42 EDT  -99.99 -99.99   15   10   19  70.2 -99.9 1014.4 -9.9 -9.999 -99.9 -99.99 -9.99
2019/05/21 08:48 EDT  -99.99 -99.99   19   19   21  69.6 -99.9 1014.5 -9.9 -9.999 -99.9 -99.99 -9.99
2019/05/21 08:54 EDT  -99.99 -99.99   18   21   22  69.3 -99.9 1014.5 -9.9 -9.999 -99.9 -99.99 -9.99
2019/05/21 09:00 EDT  -99.99 -99.99   18   23   21  69.3 -99.9 1014.5 -9.9 -9.999 -99.9 -99.99 -9.99
2019/05/21 09:06 EDT  -99.99 -99.99   18   25   20  69.1 -99.9 1014.6 -9.9 -9.999 -99.9 -99.99 -9.99
2019/05/21 09:12 EDT  -99.99 -99.99   19   26   20  68.9 -99.9 1014.7 -9.9 -9.999 -99.9 -99.99 -9.99
2019/05/21 09:18 EDT  -99.99 -99.99   17   28   19  68.9 -99.9 1014.7 -9.9 -9.999 -99.9 -99.99 -9.99
2019/05/21 09:24 EDT  -99.99 -99.99   15   27   18  69.1 -99.9 1014.8 -9.9 -9.999 -99.9 -99.99 -9.99
2019/05/21 09:30 EDT  -99.99 -99.99   15   24   17  68.9 -99.9 1014.9 -9.9 -9.999 -99.9 -99.99 -9.99
2019/05/21 09:36 EDT  -99.99 -99.99   15   27   17  68.7 -99.9 1014.9 -9.9 -9.999 -99.9 -99.99 -9.99
2019/05/21 09:42 EDT  -99.99 -99.99   16   26   19  68.5 -99.9 1014.8 -9.9 -9.999 -99.9 -99.99 -9.99
2019/05/21 09:48 EDT  -99.99 -99.99   15   26   18  68.7 -99.9 1014.8 -9.9 -9.999 -99.9 -99.99 -9.99
2019/05/21 09:54 EDT  -99.99 -99.99   12   16   17  69.1 -99.9 1015.0 -9.9 -9.999 -99.9 -99.99 -9.99
2019/05/21 10:00 EDT  -99.99 -99.99   13   36   16  68.7 -99.9 1015.0 -9.9 -9.999 -99.9 -99.99 -9.99
2019/05/21 10:06 EDT  -99.99 -99.99   13   26   16  68.7 -99.9 1015.1 -9.9 -9.999 -99.9 -99.99 -9.99
2019/05/21 10:12 EDT  -99.99 -99.99   13    8   15  69.3 -99.9 1015.1 -9.9 -9.999 -99.9 -99.99 -9.99
2019/05/21 10:18 EDT  -99.99 -99.99   10    1   16  69.8 -99.9 1015.3 -9.9 -9.999 -99.9 -99.99 -9.99
2019/05/21 10:24 EDT  -99.99 -99.99   12  356   15  69.8 -99.9 1015.3 -9.9 -9.999 -99.9 -99.99 -9.99
2019/05/21 10:30 EDT  -99.99 -99.99   14  344   16  69.6 -99.9 1015.4 -9.9 -9.999 -99.9 -99.99 -9.99
2019/05/21 10:36 EDT  -99.99 -99.99   12  335   17  69.6 -99.9 1015.4 -9.9 -9.999 -99.9 -99.99 -9.99
2019/05/21 10:42 EDT  -99.99 -99.99   12  337   15  69.8 -99.9 1015.4 -9.9 -9.999 -99.9 -99.99 -9.99
2019/05/21 10:48 EDT  -99.99 -99.99   12  347   16  69.8 -99.9 1015.5 -9.9 -9.999 -99.9 -99.99 -9.99
2019/05/21 10:54 EDT  -99.99 -99.99   13  353   14  69.6 -99.9 1015.5 -9.9 -9.999 -99.9 -99.99 -9.99
2019/05/21 11:00 EDT  -99.99 -99.99   13  351   15  69.6 -99.9 1015.6 -9.9 -9.999 -99.9 -99.99 -9.99
2019/05/21 11:06 EDT  -99.99 -99.99   10    1   14  69.6 -99.9 1015.6 -9.9 -9.999 -99.9 -99.99 -9.99
2019/05/21 11:12 EDT  -99.99 -99.99   11  357   14  69.6 -99.9 1015.6 -9.9 -9.999 -99.9 -99.99 -9.99
2019/05/21 11:18 EDT  -99.99 -99.99   13  355   15  69.6 -99.9 1015.6 -9.9 -9.999 -99.9 -99.99 -9.99
2019/05/21 11:24 EDT  -99.99 -99.99   10   27   14  69.4 -99.9 1015.4 -9.9 -9.999 -99.9 -99.99 -9.99
2019/05/21 11:30 EDT  -99.99 -99.99   11   32   14  69.1 -99.9 1015.5 -9.9 -9.999 -99.9 -99.99 -9.99
2019/05/21 11:36 EDT  -99.99 -99.99   13   35   15  68.9 -99.9 1015.5 -9.9 -9.999 -99.9 -99.99 -9.99
2019/05/21 11:42 EDT  -99.99 -99.99   13   33   15  69.1 -99.9 1015.4 -9.9 -9.999 -99.9 -99.99 -9.99
2019/05/21 11:48 EDT  -99.99 -99.99   12   35   14  69.1 -99.9 1015.3 -9.9 -9.999 -99.9 -99.99 -9.99
2019/05/21 11:54 EDT  -99.99 -99.99   12   45   14  69.1 -99.9 1015.3 -9.9 -9.999 -99.9 -99.99 -9.99
2019/05/21 12:00 EDT  -99.99 -99.99   13   38   15  68.2 -99.9 1015.3 -9.9 -9.999 -99.9 -99.99 -9.99
2019/05/21 12:06 EDT  -99.99 -99.99   14   42   15  68.0 -99.9 1015.3 -9.9 -9.999 -99.9 -99.99 -9.99
2019/05/21 12:12 EDT  -99.99 -99.99   13   43   16  68.0 -99.9 1015.4 -9.9 -9.999 -99.9 -99.99 -9.99
2019/05/21 12:18 EDT  -99.99 -99.99   12   44   14  68.2 -99.9 1015.6 -9.9 -9.999 -99.9 -99.99 -9.99
2019/05/21 12:24 EDT  -99.99 -99.99   12   49   14  68.5 -99.9 1015.5 -9.9 -9.999 -99.9 -99.99 -9.99
2019/05/21 12:30 EDT  -99.99 -99.99   14   44   15  68.4 -99.9 1015.5 -9.9 -9.999 -99.9 -99.99 -9.99
2019/05/21 12:36 EDT  -99.99 -99.99   14   44   15  68.0 -99.9 1015.5 -9.9 -9.999 -99.9 -99.99 -9.99
2019/05/21 12:42 EDT  -99.99 -99.99   14   44   15  67.8 -99.9 1015.5 -9.9 -9.999 -99.9 -99.99 -9.99
2019/05/21 12:48 EDT  -99.99 -99.99   14   49   17  67.8 -99.9 1015.5 -9.9 -9.999 -99.9 -99.99 -9.99
2019/05/21 12:54 EDT  -99.99 -99.99   15   43   17  67.6 -99.9 1015.6 -9.9 -9.999 -99.9 -99.99 -9.99
2019/05/21 13:00 EDT  -99.99 -99.99   16   44   17  67.6 -99.9 1015.5 -9.9 -9.999 -99.9 -99.99 -9.99
2019/05/21 13:06 EDT  -99.99 -99.99   14   53   17  68.0 -99.9 1015.3 -9.9 -9.999 -99.9 -99.99 -9.99
2019/05/21 13:12 EDT  -99.99 -99.99   14   44   17  67.8 -99.9 1015.5 -9.9 -9.999 -99.9 -99.99 -9.99
2019/05/21 13:18 EDT  -99.99 -99.99   14   45   15  67.8 -99.9 1015.4 -9.9 -9.999 -99.9 -99.99 -9.99
2019/05/21 13:24 EDT  -99.99 -99.99   12   44   15  68.2 -99.9 1015.4 -9.9 -9.999 -99.9 -99.99 -9.99
2019/05/21 13:30 EDT  -99.99 -99.99   11   50   13  68.2 -99.9 1015.2 -9.9 -9.999 -99.9 -99.99 -9.99
2019/05/21 13:36 EDT  -99.99 -99.99   10   46   12  68.5 -99.9 1015.3 -9.9 -9.999 -99.9 -99.99 -9.99
2019/05/21 13:42 EDT  -99.99 -99.99   11   43   12  68.4 -99.9 1015.3 -9.9 -9.999 -99.9 -99.99 -9.99
2019/05/21 13:48 EDT  -99.99 -99.99   10   41   12  68.5 -99.9 1015.2 -9.9 -9.999 -99.9 -99.99 -9.99
2019/05/21 13:54 EDT  -99.99 -99.99    9   40   11  68.5 -99.9 1015.1 -9.9 -9.999 -99.9 -99.99 -9.99
2019/05/21 14:00 EDT  -99.99 -99.99    9   46   10  68.7 -99.9 1015.1 -9.9 -9.999 -99.9 -99.99 -9.99
2019/05/21 14:06 EDT  -99.99 -99.99    8   50   11  68.9 -99.9 1015.2 -9.9 -9.999 -99.9 -99.99 -9.99
2019/05/21 14:12 EDT  -99.99 -99.99   10   44   12  68.7 -99.9 1015.2 -9.9 -9.999 -99.9 -99.99 -9.99
2019/05/21 14:18 EDT  -99.99 -99.99    9   52   11  68.7 -99.9 1015.1 -9.9 -9.999 -99.9 -99.99 -9.99
2019/05/21 14:24 EDT  -99.99 -99.99    9   53   10  68.7 -99.9 1015.1 -9.9 -9.999 -99.9 -99.99 -9.99
2019/05/21 14:30 EDT  -99.99 -99.99    9   60   11  68.5 -99.9 1015.1 -9.9 -9.999 -99.9 -99.99 -9.99
2019/05/21 14:36 EDT  -99.99 -99.99   10   50   11  68.2 -99.9 1015.0 -9.9 -9.999 -99.9 -99.99 -9.99
2019/05/21 14:42 EDT  -99.99 -99.99    9   68   11  68.2 -99.9 1014.9 -9.9 -9.999 -99.9 -99.99 -9.99
2019/05/21 14:48 EDT  -99.99 -99.99    9   58   11  68.4 -99.9 1014.9 -9.9 -9.999 -99.9 -99.99 -9.99
2019/05/21 14:54 EDT  -99.99 -99.99    9   54   11  68.2 -99.9 1014.9 -9.9 -9.999 -99.9 -99.99 -9.99
2019/05/21 15:00 EDT  -99.99 -99.99    9   46   11  68.4 -99.9 1015.0 -9.9 -9.999 -99.9 -99.99 -9.99
2019/05/21 15:06 EDT  -99.99 -99.99   11   44   12  68.4 -99.9 1014.9 -9.9 -9.999 -99.9 -99.99 -9.99
2019/05/21 15:12 EDT  -99.99 -99.99   13   41   14  68.0 -99.9 1014.8 -9.9 -9.999 -99.9 -99.99 -9.99
2019/05/21 15:18 EDT  -99.99 -99.99   13   36   15  67.8 -99.9 1014.8 -9.9 -9.999 -99.9 -99.99 -9.99
2019/05/21 15:24 EDT  -99.99 -99.99   13   35   15  67.6 -99.9 1014.9 -9.9 -9.999 -99.9 -99.99 -9.99
2019/05/21 15:30 EDT  -99.99 -99.99   12   42   15  67.5 -99.9 1014.7 -9.9 -9.999 -99.9 -99.99 -9.99
2019/05/21 15:36 EDT  -99.99 -99.99   12   43   14  67.5 -99.9 1014.7 -9.9 -9.999 -99.9 -99.99 -9.99
2019/05/21 15:42 EDT  -99.99 -99.99   11   36   13  67.6 -99.9 1014.7 -9.9 -9.999 -99.9 -99.99 -9.99
2019/05/21 15:48 EDT  -99.99 -99.99   11   38   12  67.6 -99.9 1014.8 -9.9 -9.999 -99.9 -99.99 -9.99
2019/05/21 15:54 EDT  -99.99 -99.99   12   43   12  67.8 -99.9 1015.0 -9.9 -9.999 -99.9 -99.99 -9.99
2019/05/21 16:00 EDT  -99.99 -99.99   12   38   13  67.8 -99.9 1015.1 -9.9 -9.999 -99.9 -99.99 -9.99
2019/05/21 16:06 EDT  -99.99 -99.99   13   30   15  67.6 -99.9 1015.2 -9.9 -9.999 -99.9 -99.99 -9.99
2019/05/21 16:12 EDT  -99.99 -99.99   14   27   16  67.6 -99.9 1015.1 -9.9 -9.999 -99.9 -99.99 -9.99
2019/05/21 16:18 EDT  -99.99 -99.99   13   26   15  67.8 -99.9 1014.9 -9.9 -9.999 -99.9 -99.99 -9.99
2019/05/21 16:24 EDT  -99.99 -99.99   14   33   15  67.6 -99.9 1014.9 -9.9 -9.999 -99.9 -99.99 -9.99
2019/05/21 16:30 EDT  -99.99 -99.99   15   26   16  67.8 -99.9 1015.0 -9.9 -9.999 -99.9 -99.99 -9.99
2019/05/21 16:36 EDT  -99.99 -99.99   14   31   16  67.6 -99.9 1015.1 -9.9 -9.999 -99.9 -99.99 -9.99
2019/05/21 16:42 EDT  -99.99 -99.99   14   35   16  67.6 -99.9 1015.1 -9.9 -9.999 -99.9 -99.99 -9.99
2019/05/21 16:48 EDT  -99.99 -99.99   15   27   17  67.5 -99.9 1015.2 -9.9 -9.999 -99.9 -99.99 -9.99
2019/05/21 16:54 EDT  -99.99 -99.99   15   35   17  67.5 -99.9 1015.3 -9.9 -9.999 -99.9 -99.99 -9.99
2019/05/21 17:00 EDT  -99.99 -99.99   16   34   18  67.6 -99.9 1015.3 -9.9 -9.999 -99.9 -99.99 -9.99
2019/05/21 17:06 EDT  -99.99 -99.99   15   28   16  67.6 -99.9 1015.4 -9.9 -9.999 -99.9 -99.99 -9.99
2019/05/21 17:12 EDT  -99.99 -99.99   14   33   17  67.6 -99.9 1015.4 -9.9 -9.999 -99.9 -99.99 -9.99
2019/05/21 17:18 EDT  -99.99 -99.99   14   25   16  67.8 -99.9 1015.5 -9.9 -9.999 -99.9 -99.99 -9.99
2019/05/21 17:24 EDT  -99.99 -99.99   16   24   17  67.8 -99.9 1015.5 -9.9 -9.999 -99.9 -99.99 -9.99
2019/05/21 17:30 EDT  -99.99 -99.99   15   21   18  67.8 -99.9 1015.6 -9.9 -9.999 -99.9 -99.99 -9.99
2019/05/21 17:36 EDT  -99.99 -99.99   17   21   19  67.8 -99.9 1015.7 -9.9 -9.999 -99.9 -99.99 -9.99
2019/05/21 17:42 EDT  -99.99 -99.99   17   23   19  67.8 -99.9 1015.7 -9.9 -9.999 -99.9 -99.99 -9.99
2019/05/21 17:48 EDT  -99.99 -99.99   16   28   19  67.8 -99.9 1015.7 -9.9 -9.999 -99.9 -99.99 -9.99
2019/05/21 17:54 EDT  -99.99 -99.99   16   28   18  68.2 -99.9 1015.8 -9.9 -9.999 -99.9 -99.99 -9.99
2019/05/21 18:00 EDT  -99.99 -99.99   17   30   18  68.0 -99.9 1015.8 -9.9 -9.999 -99.9 -99.99 -9.99
2019/05/21 18:06 EDT  -99.99 -99.99   17   30   19  68.0 -99.9 1015.9 -9.9 -9.999 -99.9 -99.99 -9.99
2019/05/21 18:12 EDT  -99.99 -99.99   15   30   18  68.0 -99.9 1016.0 -9.9 -9.999 -99.9 -99.99 -9.99
2019/05/21 18:18 EDT  -99.99 -99.99   16   34   19  68.0 -99.9 1016.1 -9.9 -9.999 -99.9 -99.99 -9.99
2019/05/21 18:24 EDT  -99.99 -99.99   17   27   18  68.2 -99.9 1016.3 -9.9 -9.999 -99.9 -99.99 -9.99
2019/05/21 18:30 EDT  -99.99 -99.99   16   27   18  68.2 -99.9 1016.2 -9.9 -9.999 -99.9 -99.99 -9.99
2019/05/21 18:36 EDT  -99.99 -99.99   16   27   18  68.4 -99.9 1016.3 -9.9 -9.999 -99.9 -99.99 -9.99
2019/05/21 18:42 EDT  -99.99 -99.99   15   30   18  68.4 -99.9 1016.3 -9.9 -9.999 -99.9 -99.99 -9.99
2019/05/21 18:48 EDT  -99.99 -99.99   16   27   18  68.4 -99.9 1016.4 -9.9 -9.999 -99.9 -99.99 -9.99
2019/05/21 18:54 EDT  -99.99 -99.99   16   31   18  68.4 -99.9 1016.4 -9.9 -9.999 -99.9 -99.99 -9.99
2019/05/21 19:00 EDT  -99.99 -99.99   17   29   19  68.4 -99.9 1016.5 -9.9 -9.999 -99.9 -99.99 -9.99
2019/05/21 19:06 EDT  -99.99 -99.99   16   30   19  68.4 -99.9 1016.6 -9.9 -9.999 -99.9 -99.99 -9.99
2019/05/21 19:12 EDT  -99.99 -99.99   17   26   19  68.4 -99.9 1016.7 -9.9 -9.999 -99.9 -99.99 -9.99
2019/05/21 19:18 EDT  -99.99 -99.99   17   30   19  68.5 -99.9 1016.8 -9.9 -9.999 -99.9 -99.99 -9.99
2019/05/21 19:24 EDT  -99.99 -99.99   16   28   19  68.5 -99.9 1016.8 -9.9 -9.999 -99.9 -99.99 -9.99
2019/05/21 19:30 EDT  -99.99 -99.99   16   39   19  68.4 -99.9 1016.8 -9.9 -9.999 -99.9 -99.99 -9.99
2019/05/21 19:36 EDT  -99.99 -99.99   15   32   17  68.4 -99.9 1016.8 -9.9 -9.999 -99.9 -99.99 -9.99
2019/05/21 19:42 EDT  -99.99 -99.99   16   33   18  68.4 -99.9 1016.8 -9.9 -9.999 -99.9 -99.99 -9.99
2019/05/21 19:48 EDT  -99.99 -99.99   17   36   19  68.4 -99.9 1016.8 -9.9 -9.999 -99.9 -99.99 -9.99
2019/05/21 19:54 EDT  -99.99 -99.99   16   32   18  68.4 -99.9 1016.9 -9.9 -9.999 -99.9 -99.99 -9.99
2019/05/21 20:00 EDT  -99.99 -99.99   16   35   17  68.4 -99.9 1017.0 -9.9 -9.999 -99.9 -99.99 -9.99
2019/05/21 20:06 EDT  -99.99 -99.99   15   31   19  68.7 -99.9 1017.1 -9.9 -9.999 -99.9 -99.99 -9.99
2019/05/21 20:12 EDT  -99.99 -99.99   15   29   17  68.5 -99.9 1017.1 -9.9 -9.999 -99.9 -99.99 -9.99
2019/05/21 20:18 EDT  -99.99 -99.99   15   24   17  68.7 -99.9 1017.1 -9.9 -9.999 -99.9 -99.99 -9.99
2019/05/21 20:24 EDT  -99.99 -99.99   14   26   16  68.7 -99.9 1017.1 -9.9 -9.999 -99.9 -99.99 -9.99
2019/05/21 20:30 EDT  -99.99 -99.99   15   35   16  68.5 -99.9 1017.0 -9.9 -9.999 -99.9 -99.99 -9.99
2019/05/21 20:36 EDT  -99.99 -99.99   15   24   17  68.5 -99.9 1017.2 -9.9 -9.999 -99.9 -99.99 -9.99
2019/05/21 20:42 EDT  -99.99 -99.99   13   25   16  68.7 -99.9 1017.3 -9.9 -9.999 -99.9 -99.99 -9.99
2019/05/21 20:48 EDT  -99.99 -99.99   12   21   17  68.7 -99.9 1017.4 -9.9 -9.999 -99.9 -99.99 -9.99
2019/05/21 20:54 EDT  -99.99 -99.99   13   20   14  68.7 -99.9 1017.5 -9.9 -9.999 -99.9 -99.99 -9.99
2019/05/21 21:00 EDT  -99.99 -99.99   12   21   15  68.7 -99.9 1017.6 -9.9 -9.999 -99.9 -99.99 -9.99
2019/05/21 21:06 EDT  -99.99 -99.99   12   19   15  68.7 -99.9 1017.7 -9.9 -9.999 -99.9 -99.99 -9.99
2019/05/21 21:12 EDT  -99.99 -99.99   11    7   13  68.5 -99.9 1017.8 -9.9 -9.999 -99.9 -99.99 -9.99
2019/05/21 21:18 EDT  -99.99 -99.99   10   12   11  68.4 -99.9 1017.8 -9.9 -9.999 -99.9 -99.99 -9.99
2019/05/21 21:24 EDT  -99.99 -99.99   10   17   12  68.5 -99.9 1017.8 -9.9 -9.999 -99.9 -99.99 -9.99
2019/05/21 21:30 EDT  -99.99 -99.99   11   17   13  68.5 -99.9 1017.9 -9.9 -9.999 -99.9 -99.99 -9.99
2019/05/21 21:36 EDT  -99.99 -99.99   11   15   14  68.5 -99.9 1018.0 -9.9 -9.999 -99.9 -99.99 -9.99
2019/05/21 21:42 EDT  -99.99 -99.99   11   15   14  68.5 -99.9 1018.1 -9.9 -9.999 -99.9 -99.99 -9.99
2019/05/21 21:48 EDT  -99.99 -99.99   11   10   14  68.5 -99.9 1018.1 -9.9 -9.999 -99.9 -99.99 -9.99
2019/05/21 21:54 EDT  -99.99 -99.99   12   12   16  68.5 -99.9 1018.3 -9.9 -9.999 -99.9 -99.99 -9.99
2019/05/21 22:00 EDT  -99.99 -99.99   11   14   12  68.5 -99.9 1018.2 -9.9 -9.999 -99.9 -99.99 -9.99
2019/05/21 22:06 EDT  -99.99 -99.99   11    6   13  68.5 -99.9 1018.4 -9.9 -9.999 -99.9 -99.99 -9.99
2019/05/21 22:12 EDT  -99.99 -99.99   12   10   15  68.5 -99.9 1018.5 -9.9 -9.999 -99.9 -99.99 -9.99
2019/05/21 22:18 EDT  -99.99 -99.99 -999 -999 -999 -99.9 -99.9 -999.9 -9.9 -9.999 -99.9 -99.99 -9.99
2019/05/21 22:24 EDT  -99.99 -99.99 -999 -999 -999 -99.9 -99.9 -999.9 -9.9 -9.999 -99.9 -99.99 -9.99
2019/05/21 22:30 EDT  -99.99 -99.99 -999 -999 -999 -99.9 -99.9 -999.9 -9.9 -9.999 -99.9 -99.99 -9.99

Revised: 08/08/2018
NOAA / National Ocean Service
Web site owner: Center for Operational Oceanographic Products and Services